Time,TemperatureF,DewpointF,PressureIn,WindDirection,WindDirectionDegrees,WindSpeedMPH,WindSpeedGustMPH,Humidity,HourlyPrecipIn,Conditions,Clouds,dailyrainin,SoftwareType,DateUTC
2009-02-17 00:01:00,41.3,40.5,29.76,WNW,300,11.0,11.0,97,0.00,,,0.00,Wunderground v.1.15,2009-02-17 08:01:00,
2009-02-17 00:03:00,41.4,40.6,29.76,West,269,15.0,15.0,97,0.00,,,0.00,Wunderground v.1.15,2009-02-17 08:03:00,
2009-02-17 00:04:00,41.4,40.6,29.76,West,267,9.0,15.0,97,0.00,,,0.00,Wunderground v.1.15,2009-02-17 08:04:00,
2009-02-17 00:07:00,41.4,40.6,29.76,WNW,288,12.0,15.0,97,0.00,,,0.00,Wunderground v.1.15,2009-02-17 08:07:00,
2009-02-17 00:10:00,41.4,40.6,29.76,WNW,293,10.0,10.0,97,0.00,,,0.00,Wunderground v.1.15,2009-02-17 08:10:00,
2009-02-17 00:11:00,41.4,40.6,29.76,SW,216,5.0,10.0,97,0.00,,,0.00,Wunderground v.1.15,2009-02-17 08:11:00,
2009-02-17 00:14:00,41.5,40.7,29.75,WNW,303,12.0,12.0,97,0.00,,,0.00,Wunderground v.1.15,2009-02-17 08:14:00,
2009-02-17 00:15:00,41.4,40.9,29.75,West,261,9.0,12.0,98,0.00,,,0.00,Wunderground v.1.15,2009-02-17 08:15:00,
2009-02-17 00:19:00,41.5,41.0,29.75,West,280,10.0,13.0,98,0.00,,,0.00,Wunderground v.1.15,2009-02-17 08:19:00,
2009-02-17 00:21:00,41.5,41.0,29.75,NW,315,9.0,16.0,98,0.00,,,0.00,Wunderground v.1.15,2009-02-17 08:21:00,
2009-02-17 00:22:00,41.5,41.0,29.75,WSW,258,9.0,16.0,98,0.00,,,0.00,Wunderground v.1.15,2009-02-17 08:22:00,
2009-02-17 00:24:00,41.6,41.1,29.75,NW,309,11.0,16.0,98,0.00,,,0.00,Wunderground v.1.15,2009-02-17 08:24:00,
2009-02-17 00:27:00,41.6,41.1,29.75,SW,224,4.0,16.0,98,0.00,,,0.00,Wunderground v.1.15,2009-02-17 08:27:00,
2009-02-17 00:31:00,41.7,41.2,29.76,West,260,6.0,11.0,98,0.00,,,0.00,Wunderground v.1.15,2009-02-17 08:31:00,
2009-02-17 00:32:00,41.7,41.2,29.76,West,263,7.0,11.0,98,0.00,,,0.00,Wunderground v.1.15,2009-02-17 08:32:00,
2009-02-17 00:33:00,41.7,41.2,29.76,SSW,213,8.0,11.0,98,0.00,,,0.00,Wunderground v.1.15,2009-02-17 08:33:00,
2009-02-17 00:38:00,41.8,41.3,29.76,SSW,207,7.0,11.0,98,0.00,,,0.00,Wunderground v.1.15,2009-02-17 08:38:00,
2009-02-17 00:39:00,41.8,41.3,29.76,West,270,11.0,11.0,98,0.00,,,0.00,Wunderground v.1.15,2009-02-17 08:39:00,
2009-02-17 00:42:00,41.8,41.3,29.76,SW,223,29.0,29.0,98,0.00,,,0.01,Wunderground v.1.15,2009-02-17 08:42:00,
2009-02-17 00:43:00,41.8,41.3,29.76,West,260,9.0,29.0,98,0.00,,,0.01,Wunderground v.1.15,2009-02-17 08:43:00,
2009-02-17 00:44:00,41.8,41.3,29.76,SW,225,7.0,29.0,98,0.00,,,0.01,Wunderground v.1.15,2009-02-17 08:44:00,
2009-02-17 00:48:00,41.6,41.1,29.76,SW,226,14.0,29.0,98,0.00,,,0.01,Wunderground v.1.15,2009-02-17 08:48:00,
2009-02-17 00:49:00,41.6,41.1,29.76,SW,227,4.0,29.0,98,0.00,,,0.01,Wunderground v.1.15,2009-02-17 08:49:00,
2009-02-17 00:52:00,41.4,40.6,29.76,West,271,8.0,11.0,97,0.00,,,0.01,Wunderground v.1.15,2009-02-17 08:52:00,
2009-02-17 00:54:00,41.3,40.5,29.77,SSW,199,6.0,11.0,97,0.00,,,0.01,Wunderground v.1.15,2009-02-17 08:54:00,
2009-02-17 00:56:00,41.2,40.4,29.76,SW,226,6.0,11.0,97,0.00,,,0.01,Wunderground v.1.15,2009-02-17 08:56:00,
2009-02-17 00:57:00,41.2,40.4,29.76,WSW,248,5.0,11.0,97,0.00,,,0.01,Wunderground v.1.15,2009-02-17 08:57:00,
2009-02-17 00:59:00,41.2,40.4,29.76,WNW,290,9.0,14.0,97,0.00,,,0.01,Wunderground v.1.15,2009-02-17 08:59:00,
2009-02-17 01:00:00,41.2,40.4,29.76,West,266,6.0,9.0,97,0.00,,,0.01,Wunderground v.1.15,2009-02-17 09:00:00,
2009-02-17 01:03:00,41.4,40.6,29.76,WSW,253,10.0,10.0,97,0.00,,,0.01,Wunderground v.1.15,2009-02-17 09:03:00,
2009-02-17 01:06:00,41.5,41.0,29.77,WSW,238,8.0,13.0,98,0.00,,,0.01,Wunderground v.1.15,2009-02-17 09:06:00,
2009-02-17 01:08:00,41.6,41.1,29.77,West,277,7.0,13.0,98,0.00,,,0.01,Wunderground v.1.15,2009-02-17 09:08:00,
2009-02-17 01:09:00,41.7,41.2,29.76,WSW,250,5.0,13.0,98,0.00,,,0.01,Wunderground v.1.15,2009-02-17 09:09:00,
2009-02-17 01:11:00,41.7,41.2,29.76,WSW,248,9.0,12.0,98,0.00,,,0.01,Wunderground v.1.15,2009-02-17 09:11:00,
2009-02-17 01:14:00,41.8,41.3,29.77,WNW,287,12.0,12.0,98,0.00,,,0.01,Wunderground v.1.15,2009-02-17 09:14:00,
2009-02-17 01:16:00,41.8,41.0,29.77,WSW,251,6.0,12.0,97,0.00,,,0.01,Wunderground v.1.15,2009-02-17 09:16:00,
2009-02-17 01:19:00,41.9,41.1,29.77,WNW,283,4.0,12.0,97,0.00,,,0.01,Wunderground v.1.15,2009-02-17 09:19:00,
2009-02-17 01:20:00,41.9,41.1,29.77,WSW,243,5.0,7.0,97,0.00,,,0.01,Wunderground v.1.15,2009-02-17 09:20:00,
2009-02-17 01:21:00,41.9,41.1,29.77,West,281,7.0,7.0,97,0.00,,,0.01,Wunderground v.1.15,2009-02-17 09:21:00,
2009-02-17 01:26:00,41.9,41.1,29.77,WSW,254,9.0,16.0,97,0.00,,,0.01,Wunderground v.1.15,2009-02-17 09:26:00,
2009-02-17 01:28:00,42.0,41.2,29.77,West,261,6.0,16.0,97,0.00,,,0.01,Wunderground v.1.15,2009-02-17 09:28:00,
2009-02-17 01:31:00,42.0,41.2,29.76,WSW,249,9.0,9.0,97,0.00,,,0.01,Wunderground v.1.15,2009-02-17 09:31:00,
2009-02-17 01:35:00,42.0,41.2,29.76,WSW,242,6.0,16.0,97,0.00,,,0.01,Wunderground v.1.15,2009-02-17 09:35:00,
2009-02-17 01:36:00,42.1,41.3,29.76,West,271,6.0,16.0,97,0.00,,,0.01,Wunderground v.1.15,2009-02-17 09:36:00,
2009-02-17 01:38:00,42.1,41.3,29.76,SW,220,14.0,18.0,97,0.00,,,0.01,Wunderground v.1.15,2009-02-17 09:38:00,
2009-02-17 01:40:00,42.2,41.7,29.76,SW,231,13.0,13.0,98,0.00,,,0.01,Wunderground v.1.15,2009-02-17 09:40:00,
2009-02-17 01:42:00,42.2,41.7,29.77,SSW,211,16.0,19.0,98,0.00,,,0.02,Wunderground v.1.15,2009-02-17 09:42:00,
2009-02-17 01:43:00,42.2,41.7,29.77,WSW,257,6.0,19.0,98,0.00,,,0.02,Wunderground v.1.15,2009-02-17 09:43:00,
2009-02-17 01:47:00,42.1,41.6,29.76,WSW,255,6.0,19.0,98,0.00,,,0.02,Wunderground v.1.15,2009-02-17 09:47:00,
2009-02-17 01:48:00,42.1,41.6,29.76,West,269,11.0,19.0,98,0.00,,,0.02,Wunderground v.1.15,2009-02-17 09:48:00,
2009-02-17 01:49:00,42.1,41.6,29.76,WNW,285,12.0,19.0,98,0.00,,,0.02,Wunderground v.1.15,2009-02-17 09:49:00,
2009-02-17 01:53:00,42.1,41.3,29.77,SW,225,7.0,10.0,97,0.00,,,0.02,Wunderground v.1.15,2009-02-17 09:53:00,
2009-02-17 01:54:00,42.1,41.3,29.76,WSW,257,4.0,10.0,97,0.00,,,0.02,Wunderground v.1.15,2009-02-17 09:54:00,
2009-02-17 01:57:00,42.1,41.3,29.76,West,268,5.0,10.0,97,0.00,,,0.02,Wunderground v.1.15,2009-02-17 09:57:00,
2009-02-17 02:01:00,42.1,41.3,29.76,WNW,286,13.0,13.0,97,0.00,,,0.02,Wunderground v.1.15,2009-02-17 10:01:00,
2009-02-17 02:02:00,42.1,41.3,29.76,WNW,299,7.0,13.0,97,0.00,,,0.02,Wunderground v.1.15,2009-02-17 10:02:00,
2009-02-17 02:06:00,42.1,41.3,29.76,South,190,16.0,22.0,97,0.00,,,0.02,Wunderground v.1.15,2009-02-17 10:06:00,
2009-02-17 02:07:00,42.1,41.3,29.76,SW,217,16.0,24.0,97,0.00,,,0.02,Wunderground v.1.15,2009-02-17 10:07:00,
2009-02-17 02:11:00,42.1,41.3,29.76,WSW,240,7.0,13.0,97,0.00,,,0.02,Wunderground v.1.15,2009-02-17 10:11:00,
2009-02-17 02:13:00,42.1,41.3,29.76,SW,224,7.0,19.0,97,0.00,,,0.02,Wunderground v.1.15,2009-02-17 10:13:00,
2009-02-17 02:16:00,42.1,41.3,29.76,SW,232,9.0,27.0,97,0.00,,,0.02,Wunderground v.1.15,2009-02-17 10:16:00,
2009-02-17 02:18:00,42.1,41.3,29.76,SSW,211,11.0,27.0,97,0.00,,,0.02,Wunderground v.1.15,2009-02-17 10:18:00,
2009-02-17 02:21:00,42.1,41.3,29.76,SW,227,15.0,17.0,97,0.00,,,0.02,Wunderground v.1.15,2009-02-17 10:21:00,
2009-02-17 02:22:00,42.1,41.3,29.76,NNW,342,6.0,17.0,97,0.00,,,0.02,Wunderground v.1.15,2009-02-17 10:22:00,
2009-02-17 02:23:00,42.1,41.3,29.76,SSW,205,15.0,17.0,97,0.00,,,0.02,Wunderground v.1.15,2009-02-17 10:23:00,
2009-02-17 02:26:00,42.1,41.3,29.76,WSW,242,9.0,17.0,97,0.00,,,0.02,Wunderground v.1.15,2009-02-17 10:26:00,
2009-02-17 02:27:00,42.1,41.3,29.76,SW,220,10.0,17.0,97,0.00,,,0.02,Wunderground v.1.15,2009-02-17 10:27:00,
2009-02-17 02:28:00,42.1,41.3,29.76,SW,227,19.0,19.0,97,0.00,,,0.02,Wunderground v.1.15,2009-02-17 10:28:00,
2009-02-17 02:31:00,42.1,41.3,29.76,SW,229,12.0,21.0,97,0.00,,,0.02,Wunderground v.1.15,2009-02-17 10:31:00,
2009-02-17 02:32:00,42.0,41.2,29.76,WSW,255,8.0,21.0,97,0.00,,,0.02,Wunderground v.1.15,2009-02-17 10:32:00,
2009-02-17 02:33:00,42.1,41.3,29.76,SW,217,6.0,21.0,97,0.00,,,0.02,Wunderground v.1.15,2009-02-17 10:33:00,
2009-02-17 02:36:00,42.1,41.3,29.76,WNW,285,11.0,22.0,97,0.00,,,0.02,Wunderground v.1.15,2009-02-17 10:36:00,
2009-02-17 02:37:00,42.1,41.3,29.76,WSW,252,7.0,22.0,97,0.00,,,0.02,Wunderground v.1.15,2009-02-17 10:37:00,
2009-02-17 02:38:00,42.1,41.3,29.76,WNW,298,7.0,22.0,97,0.00,,,0.02,Wunderground v.1.15,2009-02-17 10:38:00,
2009-02-17 02:41:00,42.2,41.4,29.76,SW,219,13.0,20.0,97,0.00,,,0.02,Wunderground v.1.15,2009-02-17 10:41:00,
2009-02-17 02:42:00,42.1,41.3,29.76,SW,227,8.0,20.0,97,0.00,,,0.02,Wunderground v.1.15,2009-02-17 10:42:00,
2009-02-17 02:43:00,42.2,41.4,29.76,SSW,205,15.0,20.0,97,0.00,,,0.02,Wunderground v.1.15,2009-02-17 10:43:00,
2009-02-17 02:47:00,42.2,41.4,29.76,WSW,252,10.0,20.0,97,0.00,,,0.02,Wunderground v.1.15,2009-02-17 10:47:00,
2009-02-17 02:48:00,42.2,41.4,29.76,West,261,5.0,20.0,97,0.00,,,0.02,Wunderground v.1.15,2009-02-17 10:48:00,
2009-02-17 02:49:00,42.3,41.5,29.77,WSW,238,9.0,22.0,97,0.00,,,0.02,Wunderground v.1.15,2009-02-17 10:49:00,
2009-02-17 02:52:00,42.3,41.5,29.76,WSW,237,7.0,20.0,97,0.00,,,0.02,Wunderground v.1.15,2009-02-17 10:52:00,
2009-02-17 02:53:00,42.3,41.5,29.76,SW,236,10.0,24.0,97,0.00,,,0.02,Wunderground v.1.15,2009-02-17 10:53:00,
2009-02-17 02:54:00,42.3,41.5,29.76,West,270,4.0,28.0,97,0.00,,,0.02,Wunderground v.1.15,2009-02-17 10:54:00,
2009-02-17 02:57:00,42.3,41.5,29.77,West,263,6.0,28.0,97,0.00,,,0.02,Wunderground v.1.15,2009-02-17 10:57:00,
2009-02-17 02:58:00,42.3,41.5,29.77,SSW,204,11.0,28.0,97,0.00,,,0.02,Wunderground v.1.15,2009-02-17 10:58:00,
2009-02-17 02:59:00,42.3,41.5,29.76,SW,234,4.0,28.0,97,0.00,,,0.02,Wunderground v.1.15,2009-02-17 10:59:00,
2009-02-17 03:02:00,42.3,41.2,29.76,SW,225,9.0,23.0,96,0.00,,,0.02,Wunderground v.1.15,2009-02-17 11:02:00,
2009-02-17 03:03:00,42.3,41.2,29.76,SW,232,9.0,23.0,96,0.00,,,0.02,Wunderground v.1.15,2009-02-17 11:03:00,
2009-02-17 03:04:00,42.3,41.2,29.76,WSW,243,12.0,23.0,96,0.00,,,0.02,Wunderground v.1.15,2009-02-17 11:04:00,
2009-02-17 03:07:00,42.3,41.5,29.76,SW,234,9.0,23.0,97,0.00,,,0.02,Wunderground v.1.15,2009-02-17 11:07:00,
2009-02-17 03:08:00,42.3,41.2,29.76,West,260,11.0,23.0,96,0.00,,,0.02,Wunderground v.1.15,2009-02-17 11:08:00,
2009-02-17 03:09:00,42.3,41.2,29.76,WSW,242,4.0,26.0,96,0.00,,,0.02,Wunderground v.1.15,2009-02-17 11:09:00,
2009-02-17 03:12:00,42.3,41.2,29.75,WSW,257,7.0,17.0,96,0.00,,,0.02,Wunderground v.1.15,2009-02-17 11:12:00,
2009-02-17 03:13:00,42.3,41.2,29.76,WSW,245,9.0,17.0,96,0.00,,,0.02,Wunderground v.1.15,2009-02-17 11:13:00,
2009-02-17 03:14:00,42.3,41.2,29.76,WNW,302,10.0,17.0,96,0.00,,,0.02,Wunderground v.1.15,2009-02-17 11:14:00,
2009-02-17 03:18:00,42.4,41.3,29.75,SW,215,9.0,17.0,96,0.00,,,0.02,Wunderground v.1.15,2009-02-17 11:18:00,
2009-02-17 03:19:00,42.4,41.3,29.75,West,263,7.0,19.0,96,0.00,,,0.02,Wunderground v.1.15,2009-02-17 11:19:00,
2009-02-17 03:23:00,42.5,41.4,29.75,SW,221,9.0,29.0,96,0.00,,,0.02,Wunderground v.1.15,2009-02-17 11:23:00,
2009-02-17 03:24:00,42.5,41.4,29.76,WSW,243,10.0,29.0,96,0.00,,,0.02,Wunderground v.1.15,2009-02-17 11:24:00,
2009-02-17 03:25:00,42.5,41.4,29.76,West,273,12.0,29.0,96,0.00,,,0.02,Wunderground v.1.15,2009-02-17 11:25:00,
2009-02-17 03:28:00,42.5,41.4,29.75,West,261,15.0,29.0,96,0.00,,,0.02,Wunderground v.1.15,2009-02-17 11:28:00,
2009-02-17 03:29:00,42.5,41.4,29.75,WSW,244,10.0,29.0,96,0.00,,,0.02,Wunderground v.1.15,2009-02-17 11:29:00,
2009-02-17 03:30:00,42.5,41.4,29.75,West,259,10.0,11.0,96,0.00,,,0.02,Wunderground v.1.15,2009-02-17 11:30:00,
2009-02-17 03:33:00,42.5,41.4,29.75,WSW,243,11.0,26.0,96,0.00,,,0.02,Wunderground v.1.15,2009-02-17 11:33:00,
2009-02-17 03:34:00,42.5,41.4,29.75,SW,229,10.0,26.0,96,0.00,,,0.02,Wunderground v.1.15,2009-02-17 11:34:00,
2009-02-17 03:35:00,42.5,41.4,29.75,NW,320,8.0,26.0,96,0.00,,,0.02,Wunderground v.1.15,2009-02-17 11:35:00,
2009-02-17 03:38:00,42.4,41.3,29.75,WSW,249,10.0,26.0,96,0.00,,,0.03,Wunderground v.1.15,2009-02-17 11:38:00,
2009-02-17 03:39:00,42.4,41.3,29.75,West,271,10.0,26.0,96,0.00,,,0.03,Wunderground v.1.15,2009-02-17 11:39:00,
2009-02-17 03:40:00,42.5,41.7,29.76,WNW,302,8.0,11.0,97,0.00,,,0.03,Wunderground v.1.15,2009-02-17 11:40:00,
2009-02-17 03:43:00,42.4,41.6,29.76,SW,236,12.0,32.0,97,0.08,,,0.04,Wunderground v.1.15,2009-02-17 11:43:00,
2009-02-17 03:44:00,42.4,41.6,29.76,West,263,12.0,32.0,97,0.08,,,0.04,Wunderground v.1.15,2009-02-17 11:44:00,
2009-02-17 03:45:00,42.5,41.7,29.76,West,267,10.0,32.0,97,0.31,,,0.05,Wunderground v.1.15,2009-02-17 11:45:00,
2009-02-17 03:46:00,42.4,41.6,29.76,SW,228,6.0,32.0,97,0.31,,,0.05,Wunderground v.1.15,2009-02-17 11:46:00,
2009-02-17 03:48:00,42.4,41.6,29.75,West,269,16.0,32.0,97,0.48,,,0.07,Wunderground v.1.15,2009-02-17 11:48:00,
2009-02-17 03:49:00,42.4,41.6,29.75,WSW,239,9.0,32.0,97,0.31,,,0.07,Wunderground v.1.15,2009-02-17 11:49:00,
2009-02-17 03:50:00,42.4,41.6,29.76,SW,224,9.0,16.0,97,0.22,,,0.07,Wunderground v.1.15,2009-02-17 11:50:00,
2009-02-17 03:51:00,42.4,41.6,29.75,WSW,252,13.0,18.0,97,0.17,,,0.07,Wunderground v.1.15,2009-02-17 11:51:00,
2009-02-17 03:53:00,42.4,41.6,29.75,SSW,200,15.0,18.0,97,0.17,,,0.08,Wunderground v.1.15,2009-02-17 11:53:00,
2009-02-17 03:54:00,42.4,41.6,29.76,WNW,303,10.0,18.0,97,0.17,,,0.08,Wunderground v.1.15,2009-02-17 11:54:00,
2009-02-17 03:55:00,42.3,41.5,29.76,SSW,199,12.0,19.0,97,0.14,,,0.08,Wunderground v.1.15,2009-02-17 11:55:00,
2009-02-17 03:56:00,42.3,41.5,29.76,WSW,256,13.0,19.0,97,0.11,,,0.08,Wunderground v.1.15,2009-02-17 11:56:00,
2009-02-17 03:59:00,42.3,41.5,29.76,SW,229,11.0,26.0,97,0.07,,,0.08,Wunderground v.1.15,2009-02-17 11:59:00,
2009-02-17 04:01:00,42.3,41.5,29.76,WSW,257,13.0,30.0,97,0.06,,,0.08,Wunderground v.1.15,2009-02-17 12:01:00,
2009-02-17 04:04:00,42.3,41.5,29.76,SSW,210,13.0,30.0,97,0.05,,,0.08,Wunderground v.1.15,2009-02-17 12:04:00,
2009-02-17 04:05:00,42.3,41.5,29.76,WSW,244,11.0,30.0,97,0.04,,,0.08,Wunderground v.1.15,2009-02-17 12:05:00,
2009-02-17 04:06:00,42.3,41.5,29.76,West,275,14.0,30.0,97,0.04,,,0.08,Wunderground v.1.15,2009-02-17 12:06:00,
2009-02-17 04:07:00,42.3,41.5,29.76,WSW,249,15.0,30.0,97,0.04,,,0.08,Wunderground v.1.15,2009-02-17 12:07:00,
2009-02-17 04:09:00,42.3,41.5,29.76,SW,219,20.0,33.0,97,0.00,,,0.08,Wunderground v.1.15,2009-02-17 12:09:00,
2009-02-17 04:10:00,42.3,41.5,29.76,West,264,24.0,24.0,97,0.00,,,0.08,Wunderground v.1.15,2009-02-17 12:10:00,
2009-02-17 04:11:00,42.3,41.5,29.76,NW,310,27.0,27.0,97,0.00,,,0.08,Wunderground v.1.15,2009-02-17 12:11:00,
2009-02-17 04:12:00,42.3,41.5,29.76,WSW,245,10.0,27.0,97,0.00,,,0.09,Wunderground v.1.15,2009-02-17 12:12:00,
2009-02-17 04:14:00,42.3,41.5,29.77,SW,233,11.0,27.0,97,0.27,,,0.10,Wunderground v.1.15,2009-02-17 12:14:00,
2009-02-17 04:15:00,42.3,41.5,29.76,North,350,5.0,27.0,97,0.27,,,0.10,Wunderground v.1.15,2009-02-17 12:15:00,
2009-02-17 04:16:00,42.3,41.5,29.76,SSW,207,20.0,27.0,97,0.30,,,0.11,Wunderground v.1.15,2009-02-17 12:16:00,
2009-02-17 04:17:00,42.2,41.4,29.77,SW,231,9.0,27.0,97,0.30,,,0.11,Wunderground v.1.15,2009-02-17 12:17:00,
2009-02-17 04:20:00,42.2,41.4,29.76,West,264,17.0,20.0,97,0.15,,,0.11,Wunderground v.1.15,2009-02-17 12:20:00,
2009-02-17 04:21:00,42.2,41.4,29.77,WSW,242,12.0,20.0,97,0.11,,,0.11,Wunderground v.1.15,2009-02-17 12:21:00,
2009-02-17 04:23:00,42.1,41.3,29.76,SW,223,13.0,20.0,97,0.09,,,0.11,Wunderground v.1.15,2009-02-17 12:23:00,
2009-02-17 04:25:00,42.0,41.2,29.77,WSW,256,5.0,24.0,97,0.07,,,0.12,Wunderground v.1.15,2009-02-17 12:25:00,
2009-02-17 04:26:00,42.0,41.2,29.77,SSW,202,10.0,24.0,97,0.07,,,0.12,Wunderground v.1.15,2009-02-17 12:26:00,
2009-02-17 04:27:00,42.0,41.2,29.77,SW,221,10.0,24.0,97,0.07,,,0.12,Wunderground v.1.15,2009-02-17 12:27:00,
2009-02-17 04:28:00,41.9,41.1,29.77,WSW,246,13.0,24.0,97,0.21,,,0.13,Wunderground v.1.15,2009-02-17 12:28:00,
2009-02-17 04:30:00,41.8,41.0,29.77,WSW,256,5.0,12.0,97,0.18,,,0.13,Wunderground v.1.15,2009-02-17 12:30:00,
2009-02-17 04:31:00,41.8,41.0,29.77,West,270,13.0,13.0,97,0.16,,,0.13,Wunderground v.1.15,2009-02-17 12:31:00,
2009-02-17 04:32:00,41.8,41.0,29.77,SW,234,7.0,13.0,97,0.13,,,0.13,Wunderground v.1.15,2009-02-17 12:32:00,
2009-02-17 04:33:00,41.7,40.9,29.77,WNW,290,5.0,13.0,97,0.10,,,0.13,Wunderground v.1.15,2009-02-17 12:33:00,
2009-02-17 04:35:00,41.7,40.9,29.77,WSW,248,13.0,13.0,97,0.07,,,0.13,Wunderground v.1.15,2009-02-17 12:35:00,
2009-02-17 04:36:00,41.7,40.9,29.77,SSW,213,13.0,13.0,97,0.07,,,0.13,Wunderground v.1.15,2009-02-17 12:36:00,
2009-02-17 04:38:00,41.7,40.9,29.77,SSW,209,6.0,13.0,97,0.06,,,0.13,Wunderground v.1.15,2009-02-17 12:38:00,
2009-02-17 04:41:00,41.7,40.9,29.77,SW,221,16.0,25.0,97,0.05,,,0.14,Wunderground v.1.15,2009-02-17 12:41:00,
2009-02-17 04:43:00,41.6,40.5,29.77,West,275,11.0,25.0,96,0.05,,,0.14,Wunderground v.1.15,2009-02-17 12:43:00,
2009-02-17 04:44:00,41.5,40.4,29.77,SW,224,13.0,25.0,96,0.05,,,0.14,Wunderground v.1.15,2009-02-17 12:44:00,
2009-02-17 04:46:00,41.4,40.6,29.78,WSW,238,12.0,29.0,97,0.05,,,0.14,Wunderground v.1.15,2009-02-17 12:46:00,
2009-02-17 04:47:00,41.4,40.6,29.78,SSW,209,11.0,29.0,97,0.05,,,0.14,Wunderground v.1.15,2009-02-17 12:47:00,
2009-02-17 04:48:00,41.5,40.7,29.76,West,259,9.0,29.0,97,0.05,,,0.14,Wunderground v.1.15,2009-02-17 12:48:00,
2009-02-17 04:49:00,41.5,40.7,29.77,WSW,246,7.0,29.0,97,0.05,,,0.14,Wunderground v.1.15,2009-02-17 12:49:00,
2009-02-17 04:51:00,41.5,40.7,29.76,West,273,10.0,18.0,97,0.05,,,0.14,Wunderground v.1.15,2009-02-17 12:51:00,
2009-02-17 04:52:00,41.6,40.8,29.77,SW,219,14.0,18.0,97,0.05,,,0.14,Wunderground v.1.15,2009-02-17 12:52:00,
2009-02-17 04:53:00,41.6,40.8,29.77,SSW,192,11.0,21.0,97,0.04,,,0.14,Wunderground v.1.15,2009-02-17 12:53:00,
2009-02-17 04:54:00,41.7,40.9,29.77,West,273,16.0,21.0,97,0.04,,,0.14,Wunderground v.1.15,2009-02-17 12:54:00,
2009-02-17 04:57:00,41.8,41.0,29.77,WSW,254,9.0,21.0,97,0.04,,,0.14,Wunderground v.1.15,2009-02-17 12:57:00,
2009-02-17 04:58:00,41.8,41.0,29.77,WNW,285,7.0,21.0,97,1.08,,,0.16,Wunderground v.1.15,2009-02-17 12:58:00,
2009-02-17 04:59:00,41.8,41.0,29.77,SW,220,18.0,21.0,97,0.53,,,0.17,Wunderground v.1.15,2009-02-17 12:59:00,
2009-02-17 05:02:00,41.9,41.1,29.76,SW,234,13.0,22.0,97,0.17,,,0.17,Wunderground v.1.15,2009-02-17 13:02:00,
2009-02-17 05:04:00,42.0,41.2,29.76,West,271,8.0,22.0,97,0.12,,,0.17,Wunderground v.1.15,2009-02-17 13:04:00,
2009-02-17 05:05:00,42.0,41.2,29.76,West,277,9.0,22.0,97,0.10,,,0.17,Wunderground v.1.15,2009-02-17 13:05:00,
2009-02-17 05:07:00,42.1,41.6,29.76,West,272,14.0,22.0,98,0.07,,,0.17,Wunderground v.1.15,2009-02-17 13:07:00,
2009-02-17 05:08:00,42.2,41.7,29.76,West,271,16.0,22.0,98,0.06,,,0.18,Wunderground v.1.15,2009-02-17 13:08:00,
2009-02-17 05:09:00,42.2,41.7,29.76,SSW,193,10.0,22.0,98,0.06,,,0.18,Wunderground v.1.15,2009-02-17 13:09:00,
2009-02-17 05:10:00,42.2,41.7,29.76,SSW,209,13.0,19.0,98,0.06,,,0.18,Wunderground v.1.15,2009-02-17 13:10:00,
2009-02-17 05:12:00,42.3,41.8,29.76,WSW,244,14.0,21.0,98,0.19,,,0.19,Wunderground v.1.15,2009-02-17 13:12:00,
2009-02-17 05:14:00,42.3,41.8,29.77,West,269,14.0,21.0,98,0.19,,,0.19,Wunderground v.1.15,2009-02-17 13:14:00,
2009-02-17 05:15:00,42.4,41.9,29.77,West,267,7.0,28.0,98,0.14,,,0.19,Wunderground v.1.15,2009-02-17 13:15:00,
2009-02-17 05:18:00,42.5,42.0,29.77,West,260,10.0,33.0,98,0.14,,,0.20,Wunderground v.1.15,2009-02-17 13:18:00,
2009-02-17 05:19:00,42.5,42.0,29.77,WNW,288,8.0,33.0,98,0.14,,,0.20,Wunderground v.1.15,2009-02-17 13:19:00,
2009-02-17 05:21:00,42.4,41.9,29.77,WSW,252,11.0,20.0,98,0.11,,,0.20,Wunderground v.1.15,2009-02-17 13:21:00,
2009-02-17 05:23:00,42.5,42.0,29.77,SSW,202,7.0,30.0,98,0.08,,,0.20,Wunderground v.1.15,2009-02-17 13:23:00,
2009-02-17 05:24:00,42.6,42.1,29.77,West,259,7.0,30.0,98,0.07,,,0.20,Wunderground v.1.15,2009-02-17 13:24:00,
2009-02-17 05:26:00,42.6,42.1,29.77,South,189,9.0,30.0,98,0.06,,,0.20,Wunderground v.1.15,2009-02-17 13:26:00,
2009-02-17 05:28:00,42.7,42.2,29.77,WSW,241,13.0,30.0,98,0.05,,,0.20,Wunderground v.1.15,2009-02-17 13:28:00,
2009-02-17 05:29:00,42.7,42.2,29.77,West,261,14.0,30.0,98,0.04,,,0.20,Wunderground v.1.15,2009-02-17 13:29:00,
2009-02-17 05:31:00,42.6,42.1,29.77,WSW,245,9.0,26.0,98,0.04,,,0.21,Wunderground v.1.15,2009-02-17 13:31:00,
2009-02-17 05:33:00,42.0,41.2,29.77,West,262,9.0,26.0,97,0.40,,,0.22,Wunderground v.1.15,2009-02-17 13:33:00,
2009-02-17 05:34:00,41.6,40.8,29.77,WSW,253,10.0,26.0,97,0.23,,,0.22,Wunderground v.1.15,2009-02-17 13:34:00,
2009-02-17 05:36:00,41.3,40.5,29.77,WSW,254,10.0,26.0,97,0.14,,,0.22,Wunderground v.1.15,2009-02-17 13:36:00,
2009-02-17 05:38:00,41.1,40.3,29.77,West,275,14.0,26.0,97,0.09,,,0.22,Wunderground v.1.15,2009-02-17 13:38:00,
2009-02-17 05:40:00,41.1,40.3,29.77,SW,232,16.0,16.0,97,0.08,,,0.22,Wunderground v.1.15,2009-02-17 13:40:00,
2009-02-17 05:41:00,41.1,40.3,29.77,WSW,245,12.0,16.0,97,0.06,,,0.22,Wunderground v.1.15,2009-02-17 13:41:00,
2009-02-17 05:43:00,41.1,40.3,29.77,SW,232,12.0,16.0,97,0.05,,,0.22,Wunderground v.1.15,2009-02-17 13:43:00,
2009-02-17 05:45:00,41.1,40.3,29.77,SW,219,11.0,26.0,97,0.05,,,0.22,Wunderground v.1.15,2009-02-17 13:45:00,
2009-02-17 05:47:00,41.2,40.4,29.77,SW,236,17.0,26.0,97,0.04,,,0.22,Wunderground v.1.15,2009-02-17 13:47:00,
2009-02-17 05:48:00,41.3,40.5,29.77,SW,214,9.0,29.0,97,0.04,,,0.22,Wunderground v.1.15,2009-02-17 13:48:00,
2009-02-17 05:50:00,41.3,40.5,29.78,SW,219,12.0,12.0,97,0.00,,,0.22,Wunderground v.1.15,2009-02-17 13:50:00,
2009-02-17 05:52:00,41.2,40.4,29.78,SW,233,3.0,18.0,97,0.00,,,0.22,Wunderground v.1.15,2009-02-17 13:52:00,
2009-02-17 05:53:00,41.2,40.4,29.78,WSW,237,11.0,19.0,97,0.00,,,0.22,Wunderground v.1.15,2009-02-17 13:53:00,
2009-02-17 05:55:00,41.2,40.4,29.78,SW,235,15.0,22.0,97,0.00,,,0.22,Wunderground v.1.15,2009-02-17 13:55:00,
2009-02-17 05:57:00,41.3,40.5,29.78,WSW,253,15.0,28.0,97,0.00,,,0.22,Wunderground v.1.15,2009-02-17 13:57:00,
2009-02-17 05:59:00,41.4,40.6,29.78,WSW,242,12.0,28.0,97,0.00,,,0.23,Wunderground v.1.15,2009-02-17 13:59:00,
2009-02-17 06:00:00,41.5,40.7,29.77,SW,222,15.0,17.0,97,0.00,,,0.23,Wunderground v.1.15,2009-02-17 14:00:00,
2009-02-17 06:01:00,41.5,41.0,29.77,SW,236,6.0,19.0,98,0.00,,,0.23,Wunderground v.1.15,2009-02-17 14:01:00,
2009-02-17 06:02:00,41.6,41.1,29.78,WNW,288,11.0,19.0,98,0.00,,,0.23,Wunderground v.1.15,2009-02-17 14:02:00,
2009-02-17 06:04:00,41.7,41.2,29.78,SW,229,14.0,19.0,98,0.00,,,0.23,Wunderground v.1.15,2009-02-17 14:04:00,
2009-02-17 06:05:00,41.7,41.2,29.78,WSW,248,6.0,22.0,98,0.00,,,0.23,Wunderground v.1.15,2009-02-17 14:05:00,
2009-02-17 06:06:00,41.8,41.3,29.78,SW,224,11.0,22.0,98,0.00,,,0.23,Wunderground v.1.15,2009-02-17 14:06:00,
2009-02-17 06:07:00,41.8,41.3,29.78,West,269,12.0,22.0,98,0.00,,,0.23,Wunderground v.1.15,2009-02-17 14:07:00,
2009-02-17 06:09:00,41.9,41.4,29.78,WSW,244,13.0,22.0,98,0.00,,,0.23,Wunderground v.1.15,2009-02-17 14:09:00,
2009-02-17 06:10:00,41.9,41.4,29.78,WSW,248,16.0,16.0,98,0.00,,,0.23,Wunderground v.1.15,2009-02-17 14:10:00,
2009-02-17 06:11:00,41.9,41.4,29.78,SW,227,17.0,27.0,98,0.00,,,0.23,Wunderground v.1.15,2009-02-17 14:11:00,
2009-02-17 06:13:00,42.0,41.5,29.78,West,276,16.0,27.0,98,0.00,,,0.23,Wunderground v.1.15,2009-02-17 14:13:00,
2009-02-17 06:14:00,42.0,41.5,29.78,WSW,249,14.0,27.0,98,0.00,,,0.23,Wunderground v.1.15,2009-02-17 14:14:00,
2009-02-17 06:15:00,42.0,41.5,29.78,SW,223,8.0,30.0,98,0.00,,,0.23,Wunderground v.1.15,2009-02-17 14:15:00,
2009-02-17 06:16:00,42.0,41.5,29.78,SSW,210,14.0,30.0,98,0.00,,,0.23,Wunderground v.1.15,2009-02-17 14:16:00,
2009-02-17 06:18:00,42.0,41.5,29.78,NW,306,9.0,30.0,98,0.00,,,0.23,Wunderground v.1.15,2009-02-17 14:18:00,
2009-02-17 06:19:00,41.9,41.4,29.78,SW,226,7.0,30.0,98,0.00,,,0.23,Wunderground v.1.15,2009-02-17 14:19:00,
2009-02-17 06:20:00,41.9,41.4,29.78,SW,224,13.0,20.0,98,0.00,,,0.23,Wunderground v.1.15,2009-02-17 14:20:00,
2009-02-17 06:21:00,41.9,41.1,29.78,WSW,241,7.0,20.0,97,0.00,,,0.23,Wunderground v.1.15,2009-02-17 14:21:00,
2009-02-17 06:23:00,41.8,41.0,29.78,West,267,11.0,30.0,97,0.00,,,0.23,Wunderground v.1.15,2009-02-17 14:23:00,
2009-02-17 06:24:00,41.8,41.0,29.78,SW,225,16.0,30.0,97,0.00,,,0.23,Wunderground v.1.15,2009-02-17 14:24:00,
2009-02-17 06:26:00,41.8,41.3,29.78,WSW,246,12.0,30.0,98,0.00,,,0.23,Wunderground v.1.15,2009-02-17 14:26:00,
2009-02-17 06:28:00,41.8,41.3,29.78,SW,219,19.0,30.0,98,0.00,,,0.23,Wunderground v.1.15,2009-02-17 14:28:00,
2009-02-17 06:29:00,41.8,41.3,29.78,WSW,238,13.0,30.0,98,0.00,,,0.23,Wunderground v.1.15,2009-02-17 14:29:00,
2009-02-17 06:31:00,41.7,41.2,29.78,West,263,15.0,19.0,98,0.00,,,0.23,Wunderground v.1.15,2009-02-17 14:31:00,
2009-02-17 06:32:00,41.7,41.2,29.78,West,273,11.0,20.0,98,0.00,,,0.23,Wunderground v.1.15,2009-02-17 14:32:00,
2009-02-17 06:34:00,41.7,41.2,29.78,SW,226,21.0,25.0,98,0.00,,,0.23,Wunderground v.1.15,2009-02-17 14:34:00,
2009-02-17 06:35:00,41.7,41.2,29.78,West,279,5.0,25.0,98,0.00,,,0.23,Wunderground v.1.15,2009-02-17 14:35:00,
2009-02-17 06:36:00,41.7,41.2,29.78,WSW,257,10.0,25.0,98,0.00,,,0.23,Wunderground v.1.15,2009-02-17 14:36:00,
2009-02-17 06:37:00,41.7,41.2,29.78,SW,231,12.0,25.0,98,0.00,,,0.23,Wunderground v.1.15,2009-02-17 14:37:00,
2009-02-17 06:39:00,41.8,41.3,29.78,WSW,253,12.0,25.0,98,0.00,,,0.23,Wunderground v.1.15,2009-02-17 14:39:00,
2009-02-17 06:40:00,41.8,41.3,29.78,WSW,239,18.0,18.0,98,0.00,,,0.23,Wunderground v.1.15,2009-02-17 14:40:00,
2009-02-17 06:41:00,41.8,41.3,29.78,SW,218,18.0,21.0,98,0.00,,,0.23,Wunderground v.1.15,2009-02-17 14:41:00,
2009-02-17 06:42:00,41.8,41.3,29.78,WSW,245,10.0,21.0,98,0.00,,,0.23,Wunderground v.1.15,2009-02-17 14:42:00,
2009-02-17 06:44:00,41.7,41.2,29.79,SW,236,11.0,21.0,98,0.00,,,0.23,Wunderground v.1.15,2009-02-17 14:44:00,
2009-02-17 06:45:00,41.7,41.2,29.80,West,265,7.0,21.0,98,0.00,,,0.23,Wunderground v.1.15,2009-02-17 14:45:00,
2009-02-17 06:46:00,41.7,41.2,29.79,West,267,6.0,25.0,98,0.00,,,0.23,Wunderground v.1.15,2009-02-17 14:46:00,
2009-02-17 06:47:00,41.7,41.2,29.78,SW,224,14.0,25.0,98,0.00,,,0.23,Wunderground v.1.15,2009-02-17 14:47:00,
2009-02-17 06:50:00,41.6,41.1,29.79,West,280,18.0,18.0,98,0.00,,,0.23,Wunderground v.1.15,2009-02-17 14:50:00,
2009-02-17 06:51:00,41.6,41.1,29.78,SW,217,23.0,23.0,98,0.00,,,0.23,Wunderground v.1.15,2009-02-17 14:51:00,
2009-02-17 06:52:00,41.5,40.7,29.80,SW,232,11.0,23.0,97,0.00,,,0.23,Wunderground v.1.15,2009-02-17 14:52:00,
2009-02-17 06:55:00,41.5,40.7,29.79,SW,217,8.0,29.0,97,0.00,,,0.23,Wunderground v.1.15,2009-02-17 14:55:00,
2009-02-17 06:56:00,41.5,40.7,29.79,SSW,200,15.0,29.0,97,0.00,,,0.23,Wunderground v.1.15,2009-02-17 14:56:00,
2009-02-17 06:57:00,41.4,40.6,29.79,WSW,239,7.0,29.0,97,0.00,,,0.23,Wunderground v.1.15,2009-02-17 14:57:00,
2009-02-17 07:00:00,41.4,40.6,29.79,WNW,302,11.0,22.0,97,0.00,,,0.23,Wunderground v.1.15,2009-02-17 15:00:00,
2009-02-17 07:01:00,41.4,40.6,29.79,SW,234,10.0,22.0,97,0.00,,,0.23,Wunderground v.1.15,2009-02-17 15:01:00,
2009-02-17 07:03:00,41.3,40.5,29.79,WSW,257,9.0,23.0,97,0.00,,,0.23,Wunderground v.1.15,2009-02-17 15:03:00,
2009-02-17 07:06:00,41.3,40.5,29.80,NW,305,9.0,26.0,97,0.00,,,0.23,Wunderground v.1.15,2009-02-17 15:06:00,
2009-02-17 07:08:00,41.3,40.5,29.80,SW,225,18.0,26.0,97,0.00,,,0.23,Wunderground v.1.15,2009-02-17 15:08:00,
2009-02-17 07:11:00,41.3,40.5,29.80,West,265,9.0,15.0,97,0.00,,,0.23,Wunderground v.1.15,2009-02-17 15:11:00,
2009-02-17 07:12:00,41.3,40.5,29.80,WNW,293,6.0,17.0,97,0.00,,,0.23,Wunderground v.1.15,2009-02-17 15:12:00,
2009-02-17 07:13:00,41.3,40.5,29.80,NW,319,5.0,24.0,97,0.00,,,0.23,Wunderground v.1.15,2009-02-17 15:13:00,
2009-02-17 07:16:00,41.2,40.4,29.81,WSW,257,13.0,24.0,97,0.00,,,0.23,Wunderground v.1.15,2009-02-17 15:16:00,
2009-02-17 07:17:00,41.2,40.4,29.81,SW,236,3.0,24.0,97,0.00,,,0.23,Wunderground v.1.15,2009-02-17 15:17:00,
2009-02-17 07:18:00,41.1,40.3,29.81,West,269,5.0,24.0,97,0.00,,,0.23,Wunderground v.1.15,2009-02-17 15:18:00,
2009-02-17 07:21:00,41.0,40.2,29.81,WSW,240,7.0,11.0,97,0.00,,,0.23,Wunderground v.1.15,2009-02-17 15:21:00,
2009-02-17 07:22:00,41.0,40.2,29.81,West,268,7.0,12.0,97,0.00,,,0.23,Wunderground v.1.15,2009-02-17 15:22:00,
2009-02-17 07:23:00,40.9,40.1,29.82,SW,234,12.0,13.0,97,0.00,,,0.23,Wunderground v.1.15,2009-02-17 15:23:00,
2009-02-17 07:26:00,40.7,39.9,29.82,WSW,238,12.0,24.0,97,0.00,,,0.23,Wunderground v.1.15,2009-02-17 15:26:00,
2009-02-17 07:27:00,40.7,39.9,29.82,West,277,7.0,24.0,97,0.00,,,0.23,Wunderground v.1.15,2009-02-17 15:27:00,
2009-02-17 07:28:00,40.6,39.8,29.82,WSW,240,10.0,24.0,97,0.00,,,0.23,Wunderground v.1.15,2009-02-17 15:28:00,
2009-02-17 07:32:00,40.5,39.7,29.83,NW,311,12.0,17.0,97,0.00,,,0.23,Wunderground v.1.15,2009-02-17 15:32:00,
2009-02-17 07:34:00,40.4,39.4,29.82,SW,214,17.0,24.0,96,0.00,,,0.23,Wunderground v.1.15,2009-02-17 15:34:00,
2009-02-17 07:37:00,40.4,39.6,29.83,SW,236,9.0,24.0,97,0.00,,,0.23,Wunderground v.1.15,2009-02-17 15:37:00,
2009-02-17 07:38:00,40.4,39.6,29.82,WSW,240,9.0,24.0,97,0.00,,,0.23,Wunderground v.1.15,2009-02-17 15:38:00,
2009-02-17 07:39:00,40.4,39.6,29.82,WNW,286,7.0,24.0,97,0.00,,,0.23,Wunderground v.1.15,2009-02-17 15:39:00,
2009-02-17 07:42:00,40.3,39.3,29.83,SW,230,8.0,18.0,96,0.00,,,0.23,Wunderground v.1.15,2009-02-17 15:42:00,
2009-02-17 07:43:00,40.3,39.3,29.82,WSW,246,9.0,18.0,96,0.00,,,0.23,Wunderground v.1.15,2009-02-17 15:43:00,
2009-02-17 07:44:00,40.3,39.3,29.83,WSW,250,7.0,18.0,96,0.00,,,0.23,Wunderground v.1.15,2009-02-17 15:44:00,
2009-02-17 07:47:00,40.2,39.2,29.83,WSW,257,8.0,18.0,96,0.00,,,0.23,Wunderground v.1.15,2009-02-17 15:47:00,
2009-02-17 07:48:00,40.2,39.2,29.83,SSW,200,20.0,20.0,96,0.00,,,0.23,Wunderground v.1.15,2009-02-17 15:48:00,
2009-02-17 07:49:00,40.3,39.3,29.83,WSW,256,10.0,20.0,96,0.00,,,0.23,Wunderground v.1.15,2009-02-17 15:49:00,
2009-02-17 07:53:00,40.4,39.6,29.83,West,273,6.0,22.0,97,0.00,,,0.23,Wunderground v.1.15,2009-02-17 15:53:00,
2009-02-17 07:55:00,40.6,39.8,29.83,WSW,246,6.0,22.0,97,0.00,,,0.23,Wunderground v.1.15,2009-02-17 15:55:00,
2009-02-17 07:58:00,40.7,39.9,29.83,WSW,254,7.0,22.0,97,0.00,,,0.23,Wunderground v.1.15,2009-02-17 15:58:00,
2009-02-17 07:59:00,40.7,39.9,29.82,SW,236,14.0,22.0,97,0.00,,,0.23,Wunderground v.1.15,2009-02-17 15:59:00,
2009-02-17 08:00:00,40.8,40.0,29.83,SSW,198,11.0,13.0,97,0.00,,,0.23,Wunderground v.1.15,2009-02-17 16:00:00,
2009-02-17 08:03:00,40.9,40.1,29.83,WSW,238,12.0,18.0,97,0.00,,,0.23,Wunderground v.1.15,2009-02-17 16:03:00,
2009-02-17 08:04:00,40.9,40.1,29.83,SW,215,14.0,18.0,97,0.00,,,0.23,Wunderground v.1.15,2009-02-17 16:04:00,
2009-02-17 08:05:00,41.0,40.2,29.83,WSW,248,7.0,18.0,97,0.00,,,0.23,Wunderground v.1.15,2009-02-17 16:05:00,
2009-02-17 08:08:00,41.1,40.3,29.83,WSW,246,9.0,30.0,97,0.00,,,0.23,Wunderground v.1.15,2009-02-17 16:08:00,
2009-02-17 08:09:00,41.1,40.3,29.83,SW,226,11.0,30.0,97,0.00,,,0.23,Wunderground v.1.15,2009-02-17 16:09:00,
2009-02-17 08:10:00,41.2,40.4,29.83,WSW,238,17.0,24.0,97,0.00,,,0.23,Wunderground v.1.15,2009-02-17 16:10:00,
2009-02-17 08:14:00,41.4,40.6,29.84,WSW,241,8.0,24.0,97,0.00,,,0.23,Wunderground v.1.15,2009-02-17 16:14:00,
2009-02-17 08:15:00,41.4,40.6,29.84,West,274,6.0,24.0,97,0.00,,,0.23,Wunderground v.1.15,2009-02-17 16:15:00,
2009-02-17 08:19:00,41.6,40.8,29.84,WSW,245,6.0,24.0,97,0.00,,,0.23,Wunderground v.1.15,2009-02-17 16:19:00,
2009-02-17 08:21:00,41.7,40.9,29.84,SW,236,11.0,16.0,97,0.00,,,0.23,Wunderground v.1.15,2009-02-17 16:21:00,
2009-02-17 08:24:00,41.8,41.0,29.84,West,274,6.0,17.0,97,0.00,,,0.23,Wunderground v.1.15,2009-02-17 16:24:00,
2009-02-17 08:25:00,41.8,41.0,29.84,SW,227,12.0,17.0,97,0.00,,,0.23,Wunderground v.1.15,2009-02-17 16:25:00,
2009-02-17 08:26:00,41.9,41.1,29.85,SW,214,7.0,17.0,97,0.00,,,0.23,Wunderground v.1.15,2009-02-17 16:26:00,
2009-02-17 08:29:00,42.0,41.2,29.85,SW,228,7.0,20.0,97,0.00,,,0.23,Wunderground v.1.15,2009-02-17 16:29:00,
2009-02-17 08:30:00,42.0,41.2,29.85,SSW,202,16.0,16.0,97,0.00,,,0.23,Wunderground v.1.15,2009-02-17 16:30:00,
2009-02-17 08:32:00,42.1,41.3,29.85,SW,218,6.0,18.0,97,0.00,,,0.23,Wunderground v.1.15,2009-02-17 16:32:00,
2009-02-17 08:34:00,42.2,41.7,29.86,SW,222,16.0,24.0,98,0.00,,,0.23,Wunderground v.1.15,2009-02-17 16:34:00,
2009-02-17 08:35:00,42.2,41.7,29.86,WSW,257,4.0,24.0,98,0.00,,,0.23,Wunderground v.1.15,2009-02-17 16:35:00,
2009-02-17 08:36:00,42.2,41.7,29.86,WSW,237,9.0,24.0,98,0.00,,,0.23,Wunderground v.1.15,2009-02-17 16:36:00,
2009-02-17 08:37:00,42.3,41.8,29.86,SW,219,11.0,24.0,98,0.00,,,0.23,Wunderground v.1.15,2009-02-17 16:37:00,
2009-02-17 08:39:00,42.4,41.9,29.86,SSW,213,6.0,10.0,98,0.00,,,0.23,Wunderground v.1.15,2009-02-17 16:39:00,
2009-02-17 08:40:00,42.4,41.9,29.86,WNW,293,6.0,17.0,98,0.00,,,0.23,Wunderground v.1.15,2009-02-17 16:40:00,
2009-02-17 08:41:00,42.5,42.0,29.86,WSW,252,12.0,17.0,98,0.00,,,0.23,Wunderground v.1.15,2009-02-17 16:41:00,
2009-02-17 08:43:00,42.5,42.0,29.87,SW,233,10.0,17.0,98,0.00,,,0.23,Wunderground v.1.15,2009-02-17 16:43:00,
2009-02-17 08:45:00,42.6,42.1,29.87,WSW,254,10.0,17.0,98,0.00,,,0.23,Wunderground v.1.15,2009-02-17 16:45:00,
2009-02-17 08:46:00,42.6,42.1,29.87,WSW,248,8.0,29.0,98,0.00,,,0.23,Wunderground v.1.15,2009-02-17 16:46:00,
2009-02-17 08:48:00,42.5,42.0,29.87,WNW,287,7.0,29.0,98,0.00,,,0.23,Wunderground v.1.15,2009-02-17 16:48:00,
2009-02-17 08:50:00,42.5,42.0,29.87,SW,223,7.0,11.0,98,0.00,,,0.23,Wunderground v.1.15,2009-02-17 16:50:00,
2009-02-17 08:52:00,42.5,42.0,29.87,WSW,242,7.0,17.0,98,0.00,,,0.23,Wunderground v.1.15,2009-02-17 16:52:00,
2009-02-17 08:53:00,42.6,42.1,29.87,SW,227,5.0,17.0,98,0.00,,,0.23,Wunderground v.1.15,2009-02-17 16:53:00,
2009-02-17 08:55:00,42.6,42.1,29.87,WSW,238,10.0,26.0,98,0.00,,,0.23,Wunderground v.1.15,2009-02-17 16:55:00,
2009-02-17 08:57:00,42.6,42.1,29.87,SW,225,10.0,26.0,98,0.00,,,0.23,Wunderground v.1.15,2009-02-17 16:57:00,
2009-02-17 08:58:00,42.6,42.1,29.87,SW,215,19.0,26.0,98,0.00,,,0.23,Wunderground v.1.15,2009-02-17 16:58:00,
2009-02-17 09:00:00,42.5,42.0,29.87,WSW,246,6.0,20.0,98,0.00,,,0.23,Wunderground v.1.15,2009-02-17 17:00:00,
2009-02-17 09:01:00,42.5,42.0,29.87,SW,232,6.0,20.0,98,0.00,,,0.23,Wunderground v.1.15,2009-02-17 17:01:00,
2009-02-17 09:02:00,42.6,42.1,29.87,SW,217,10.0,20.0,98,0.00,,,0.23,Wunderground v.1.15,2009-02-17 17:02:00,
2009-02-17 09:04:00,42.6,42.1,29.88,NW,310,7.0,20.0,98,0.00,,,0.23,Wunderground v.1.15,2009-02-17 17:04:00,
2009-02-17 09:05:00,42.6,42.1,29.88,WSW,249,6.0,20.0,98,0.00,,,0.23,Wunderground v.1.15,2009-02-17 17:05:00,
2009-02-17 09:07:00,42.6,42.1,29.87,SW,217,13.0,20.0,98,0.00,,,0.23,Wunderground v.1.15,2009-02-17 17:07:00,
2009-02-17 09:09:00,42.7,42.2,29.88,SW,234,4.0,20.0,98,0.00,,,0.23,Wunderground v.1.15,2009-02-17 17:09:00,
2009-02-17 09:10:00,42.7,42.2,29.88,WSW,252,10.0,22.0,98,0.00,,,0.23,Wunderground v.1.15,2009-02-17 17:10:00,
2009-02-17 09:12:00,42.8,42.3,29.87,WSW,240,12.0,22.0,98,0.00,,,0.23,Wunderground v.1.15,2009-02-17 17:12:00,
2009-02-17 09:13:00,42.8,42.3,29.87,West,278,9.0,22.0,98,0.00,,,0.23,Wunderground v.1.15,2009-02-17 17:13:00,
2009-02-17 09:15:00,42.8,42.3,29.88,SW,231,4.0,22.0,98,0.00,,,0.23,Wunderground v.1.15,2009-02-17 17:15:00,
2009-02-17 09:17:00,42.9,42.4,29.88,SSW,213,6.0,22.0,98,0.00,,,0.23,Wunderground v.1.15,2009-02-17 17:17:00,
2009-02-17 09:18:00,42.9,42.4,29.88,SW,231,6.0,22.0,98,0.00,,,0.23,Wunderground v.1.15,2009-02-17 17:18:00,
2009-02-17 09:20:00,42.8,42.3,29.88,WSW,251,9.0,12.0,98,0.00,,,0.23,Wunderground v.1.15,2009-02-17 17:20:00,
2009-02-17 09:22:00,42.9,42.1,29.88,SW,236,4.0,16.0,97,0.00,,,0.23,Wunderground v.1.15,2009-02-17 17:22:00,
2009-02-17 09:23:00,43.0,42.2,29.88,West,277,6.0,16.0,97,0.00,,,0.23,Wunderground v.1.15,2009-02-17 17:23:00,
2009-02-17 09:25:00,43.1,42.3,29.88,SW,232,7.0,16.0,97,0.00,,,0.23,Wunderground v.1.15,2009-02-17 17:25:00,
2009-02-17 09:26:00,43.1,42.3,29.88,WNW,289,8.0,16.0,97,0.00,,,0.23,Wunderground v.1.15,2009-02-17 17:26:00,
2009-02-17 09:27:00,43.2,42.4,29.88,West,277,14.0,17.0,97,0.00,,,0.23,Wunderground v.1.15,2009-02-17 17:27:00,
2009-02-17 09:28:00,43.2,42.4,29.88,WSW,244,11.0,17.0,97,0.00,,,0.23,Wunderground v.1.15,2009-02-17 17:28:00,
2009-02-17 09:30:00,43.2,42.4,29.88,SW,224,11.0,19.0,97,0.00,,,0.23,Wunderground v.1.15,2009-02-17 17:30:00,
2009-02-17 09:31:00,43.2,42.4,29.88,SW,229,9.0,19.0,97,0.00,,,0.23,Wunderground v.1.15,2009-02-17 17:31:00,
2009-02-17 09:32:00,43.0,42.2,29.88,WNW,293,7.0,19.0,97,0.00,,,0.23,Wunderground v.1.15,2009-02-17 17:32:00,
2009-02-17 09:34:00,43.0,42.2,29.88,SW,232,12.0,19.0,97,0.00,,,0.23,Wunderground v.1.15,2009-02-17 17:34:00,
2009-02-17 09:35:00,43.0,42.2,29.89,SSW,198,9.0,19.0,97,0.00,,,0.23,Wunderground v.1.15,2009-02-17 17:35:00,
2009-02-17 09:36:00,43.0,42.2,29.89,WSW,257,11.0,19.0,97,0.00,,,0.23,Wunderground v.1.15,2009-02-17 17:36:00,
2009-02-17 09:38:00,42.9,42.1,29.89,WSW,240,9.0,19.0,97,0.00,,,0.23,Wunderground v.1.15,2009-02-17 17:38:00,
2009-02-17 09:39:00,42.8,42.0,29.89,WSW,248,4.0,19.0,97,0.00,,,0.23,Wunderground v.1.15,2009-02-17 17:39:00,
2009-02-17 09:40:00,42.8,42.0,29.89,WNW,290,13.0,13.0,97,0.00,,,0.23,Wunderground v.1.15,2009-02-17 17:40:00,
2009-02-17 09:41:00,42.8,42.0,29.89,WSW,240,11.0,15.0,97,0.00,,,0.23,Wunderground v.1.15,2009-02-17 17:41:00,
2009-02-17 09:43:00,42.8,42.0,29.89,West,275,10.0,20.0,97,0.00,,,0.23,Wunderground v.1.15,2009-02-17 17:43:00,
2009-02-17 09:44:00,42.8,42.0,29.89,WSW,247,7.0,20.0,97,0.00,,,0.23,Wunderground v.1.15,2009-02-17 17:44:00,
2009-02-17 09:45:00,42.7,41.9,29.89,WSW,238,7.0,20.0,97,0.00,,,0.23,Wunderground v.1.15,2009-02-17 17:45:00,
2009-02-17 09:46:00,42.7,41.9,29.90,SW,232,11.0,20.0,97,0.00,,,0.23,Wunderground v.1.15,2009-02-17 17:46:00,
2009-02-17 09:48:00,42.8,42.0,29.90,SW,227,8.0,20.0,97,0.00,,,0.23,Wunderground v.1.15,2009-02-17 17:48:00,
2009-02-17 09:49:00,42.8,42.0,29.90,SW,221,12.0,20.0,97,0.00,,,0.23,Wunderground v.1.15,2009-02-17 17:49:00,
2009-02-17 09:51:00,42.9,42.1,29.90,SW,235,5.0,11.0,97,0.00,,,0.23,Wunderground v.1.15,2009-02-17 17:51:00,
2009-02-17 09:54:00,43.0,42.2,29.90,SW,214,9.0,13.0,97,0.00,,,0.23,Wunderground v.1.15,2009-02-17 17:54:00,
2009-02-17 09:55:00,43.1,42.3,29.90,SW,226,5.0,13.0,97,0.00,,,0.23,Wunderground v.1.15,2009-02-17 17:55:00,
2009-02-17 09:56:00,43.1,42.3,29.90,SW,236,8.0,14.0,97,0.00,,,0.23,Wunderground v.1.15,2009-02-17 17:56:00,
2009-02-17 09:59:00,43.2,42.4,29.90,WSW,245,6.0,14.0,97,0.00,,,0.23,Wunderground v.1.15,2009-02-17 17:59:00,
2009-02-17 10:00:00,43.2,42.4,29.90,WSW,252,13.0,13.0,97,0.00,,,0.23,Wunderground v.1.15,2009-02-17 18:00:00,
2009-02-17 10:01:00,43.2,42.7,29.90,West,273,5.0,17.0,98,0.00,,,0.23,Wunderground v.1.15,2009-02-17 18:01:00,
2009-02-17 10:04:00,43.2,42.4,29.90,West,275,4.0,17.0,97,0.00,,,0.23,Wunderground v.1.15,2009-02-17 18:04:00,
2009-02-17 10:05:00,43.3,42.5,29.90,WSW,241,4.0,17.0,97,0.00,,,0.23,Wunderground v.1.15,2009-02-17 18:05:00,
2009-02-17 10:06:00,43.4,42.6,29.91,WSW,254,12.0,17.0,97,0.00,,,0.23,Wunderground v.1.15,2009-02-17 18:06:00,
2009-02-17 10:07:00,43.4,42.6,29.91,SSW,211,6.0,17.0,97,0.00,,,0.23,Wunderground v.1.15,2009-02-17 18:07:00,
2009-02-17 10:09:00,43.5,42.7,29.91,WSW,245,7.0,23.0,97,0.00,,,0.23,Wunderground v.1.15,2009-02-17 18:09:00,
2009-02-17 10:10:00,43.5,42.7,29.91,WSW,253,5.0,13.0,97,0.00,,,0.23,Wunderground v.1.15,2009-02-17 18:10:00,
2009-02-17 10:11:00,43.4,42.6,29.91,WSW,241,9.0,18.0,97,0.00,,,0.23,Wunderground v.1.15,2009-02-17 18:11:00,
2009-02-17 10:12:00,43.4,42.6,29.91,SW,222,7.0,18.0,97,0.00,,,0.23,Wunderground v.1.15,2009-02-17 18:12:00,
2009-02-17 10:15:00,43.3,42.5,29.91,SSW,194,10.0,27.0,97,0.84,,,0.25,Wunderground v.1.15,2009-02-17 18:15:00,
2009-02-17 10:16:00,43.1,42.0,29.91,West,276,10.0,27.0,96,0.32,,,0.25,Wunderground v.1.15,2009-02-17 18:16:00,
2009-02-17 10:17:00,43.0,41.9,29.91,SW,223,9.0,27.0,96,0.27,,,0.25,Wunderground v.1.15,2009-02-17 18:17:00,
2009-02-17 10:20:00,42.7,41.9,29.91,West,259,7.0,13.0,97,0.14,,,0.26,Wunderground v.1.15,2009-02-17 18:20:00,
2009-02-17 10:21:00,42.7,41.9,29.91,SW,229,10.0,13.0,97,0.14,,,0.26,Wunderground v.1.15,2009-02-17 18:21:00,
2009-02-17 10:22:00,42.7,41.9,29.91,WSW,246,6.0,16.0,97,0.14,,,0.26,Wunderground v.1.15,2009-02-17 18:22:00,
2009-02-17 10:26:00,42.7,41.9,29.91,SW,232,10.0,23.0,97,0.09,,,0.26,Wunderground v.1.15,2009-02-17 18:26:00,
2009-02-17 10:27:00,42.7,41.9,29.91,North,355,7.0,23.0,97,0.07,,,0.26,Wunderground v.1.15,2009-02-17 18:27:00,
2009-02-17 10:31:00,42.7,41.9,29.91,SW,232,12.0,14.0,97,0.05,,,0.26,Wunderground v.1.15,2009-02-17 18:31:00,
2009-02-17 10:32:00,42.7,41.9,29.92,SSW,213,18.0,18.0,97,0.05,,,0.26,Wunderground v.1.15,2009-02-17 18:32:00,
2009-02-17 10:33:00,42.7,41.9,29.92,West,269,14.0,18.0,97,0.04,,,0.26,Wunderground v.1.15,2009-02-17 18:33:00,
2009-02-17 10:36:00,42.9,42.1,29.92,West,259,5.0,18.0,97,0.00,,,0.26,Wunderground v.1.15,2009-02-17 18:36:00,
2009-02-17 10:37:00,42.9,42.1,29.91,SSW,211,10.0,18.0,97,0.00,,,0.26,Wunderground v.1.15,2009-02-17 18:37:00,
2009-02-17 10:38:00,42.9,42.1,29.92,WSW,245,14.0,20.0,97,0.00,,,0.26,Wunderground v.1.15,2009-02-17 18:38:00,
2009-02-17 10:41:00,42.9,42.1,29.92,SW,229,6.0,19.0,97,0.00,,,0.26,Wunderground v.1.15,2009-02-17 18:41:00,
2009-02-17 10:42:00,42.9,42.1,29.93,SW,228,9.0,19.0,97,0.00,,,0.26,Wunderground v.1.15,2009-02-17 18:42:00,
2009-02-17 10:43:00,42.9,42.1,29.93,SW,218,7.0,19.0,97,0.00,,,0.26,Wunderground v.1.15,2009-02-17 18:43:00,
2009-02-17 10:47:00,42.7,41.9,29.93,West,271,7.0,21.0,97,0.00,,,0.26,Wunderground v.1.15,2009-02-17 18:47:00,
2009-02-17 10:48:00,42.7,41.9,29.93,SSW,209,10.0,21.0,97,0.00,,,0.26,Wunderground v.1.15,2009-02-17 18:48:00,
2009-02-17 10:53:00,42.5,41.7,29.93,WNW,293,5.0,15.0,97,0.00,,,0.26,Wunderground v.1.15,2009-02-17 18:53:00,
2009-02-17 10:54:00,42.5,41.7,29.93,WSW,257,5.0,15.0,97,0.00,,,0.26,Wunderground v.1.15,2009-02-17 18:54:00,
2009-02-17 10:58:00,42.6,41.8,29.93,WSW,250,9.0,18.0,97,0.00,,,0.26,Wunderground v.1.15,2009-02-17 18:58:00,
2009-02-17 10:59:00,42.7,41.9,29.93,SW,225,14.0,24.0,97,0.00,,,0.26,Wunderground v.1.15,2009-02-17 18:59:00,
2009-02-17 11:03:00,42.8,42.0,29.93,SW,230,7.0,20.0,97,0.00,,,0.26,Wunderground v.1.15,2009-02-17 19:03:00,
2009-02-17 11:04:00,42.9,42.1,29.93,WSW,237,15.0,20.0,97,0.00,,,0.26,Wunderground v.1.15,2009-02-17 19:04:00,
2009-02-17 11:09:00,43.1,42.3,29.93,SW,227,12.0,22.0,97,0.00,,,0.26,Wunderground v.1.15,2009-02-17 19:09:00,
2009-02-17 11:14:00,43.2,42.1,29.93,SW,225,11.0,16.0,96,0.00,,,0.26,Wunderground v.1.15,2009-02-17 19:14:00,
2009-02-17 11:19:00,43.3,42.2,29.93,SW,227,8.0,16.0,96,0.00,,,0.26,Wunderground v.1.15,2009-02-17 19:19:00,
2009-02-17 11:24:00,43.1,42.0,29.94,WSW,252,7.0,19.0,96,0.00,,,0.26,Wunderground v.1.15,2009-02-17 19:24:00,
2009-02-17 11:25:00,43.1,42.0,29.94,SW,231,6.0,19.0,96,0.00,,,0.26,Wunderground v.1.15,2009-02-17 19:25:00,
2009-02-17 11:29:00,43.0,41.9,29.94,SSW,211,5.0,19.0,96,0.00,,,0.26,Wunderground v.1.15,2009-02-17 19:29:00,
2009-02-17 11:30:00,43.0,41.9,29.94,WSW,248,5.0,9.0,96,0.00,,,0.26,Wunderground v.1.15,2009-02-17 19:30:00,
2009-02-17 11:35:00,42.7,41.6,29.94,WSW,249,5.0,29.0,96,0.00,,,0.27,Wunderground v.1.15,2009-02-17 19:35:00,
2009-02-17 11:40:00,42.5,41.4,29.95,SW,234,5.0,8.0,96,0.08,,,0.28,Wunderground v.1.15,2009-02-17 19:40:00,
2009-02-17 11:41:00,42.5,41.4,29.95,SW,219,12.0,15.0,96,0.08,,,0.28,Wunderground v.1.15,2009-02-17 19:41:00,
2009-02-17 11:45:00,42.4,41.6,29.95,WSW,246,9.0,15.0,97,0.24,,,0.30,Wunderground v.1.15,2009-02-17 19:45:00,
2009-02-17 11:46:00,42.5,41.7,29.95,SW,217,15.0,17.0,97,0.20,,,0.30,Wunderground v.1.15,2009-02-17 19:46:00,
2009-02-17 11:50:00,42.6,41.8,29.95,SSW,208,13.0,15.0,97,0.08,,,0.30,Wunderground v.1.15,2009-02-17 19:50:00,
2009-02-17 11:51:00,42.5,41.7,29.95,West,259,5.0,15.0,97,0.08,,,0.30,Wunderground v.1.15,2009-02-17 19:51:00,
2009-02-17 11:55:00,42.5,41.7,29.95,SW,221,9.0,19.0,97,0.05,,,0.30,Wunderground v.1.15,2009-02-17 19:55:00,
2009-02-17 11:56:00,42.5,41.7,29.95,SW,233,11.0,19.0,97,0.05,,,0.30,Wunderground v.1.15,2009-02-17 19:56:00,
2009-02-17 12:01:00,42.4,41.6,29.95,SW,232,5.0,11.0,97,0.00,,,0.30,Wunderground v.1.15,2009-02-17 20:01:00,
2009-02-17 12:06:00,42.7,41.9,29.94,WSW,245,7.0,19.0,97,0.00,,,0.30,Wunderground v.1.15,2009-02-17 20:06:00,
2009-02-17 12:07:00,42.7,41.9,29.94,WSW,256,7.0,19.0,97,0.00,,,0.30,Wunderground v.1.15,2009-02-17 20:07:00,
2009-02-17 12:11:00,42.8,42.3,29.94,SW,232,10.0,13.0,98,0.00,,,0.30,Wunderground v.1.15,2009-02-17 20:11:00,
2009-02-17 12:12:00,42.9,42.4,29.95,WSW,257,10.0,16.0,98,0.00,,,0.30,Wunderground v.1.15,2009-02-17 20:12:00,
2009-02-17 12:16:00,43.1,42.6,29.94,SW,236,9.0,22.0,98,0.00,,,0.30,Wunderground v.1.15,2009-02-17 20:16:00,
2009-02-17 12:17:00,43.1,42.6,29.94,West,273,12.0,22.0,98,0.00,,,0.30,Wunderground v.1.15,2009-02-17 20:17:00,
2009-02-17 12:22:00,43.1,42.6,29.94,WSW,245,12.0,13.0,98,0.00,,,0.30,Wunderground v.1.15,2009-02-17 20:22:00,
2009-02-17 12:23:00,43.1,42.6,29.94,SSW,205,6.0,13.0,98,0.00,,,0.30,Wunderground v.1.15,2009-02-17 20:23:00,
2009-02-17 12:27:00,43.0,42.5,29.95,West,272,8.0,21.0,98,0.00,,,0.30,Wunderground v.1.15,2009-02-17 20:27:00,
2009-02-17 12:28:00,43.0,42.5,29.95,WSW,248,5.0,21.0,98,0.00,,,0.30,Wunderground v.1.15,2009-02-17 20:28:00,
2009-02-17 12:32:00,42.9,42.4,29.94,WSW,253,6.0,17.0,98,0.00,,,0.30,Wunderground v.1.15,2009-02-17 20:32:00,
2009-02-17 12:33:00,43.0,42.5,29.94,WSW,246,6.0,17.0,98,0.00,,,0.30,Wunderground v.1.15,2009-02-17 20:33:00,
2009-02-17 12:37:00,43.1,42.6,29.95,WSW,239,9.0,17.0,98,0.00,,,0.30,Wunderground v.1.15,2009-02-17 20:37:00,
2009-02-17 12:38:00,43.1,42.6,29.95,SW,232,6.0,17.0,98,0.00,,,0.30,Wunderground v.1.15,2009-02-17 20:38:00,
2009-02-17 12:42:00,43.2,42.7,29.95,WSW,248,4.0,12.0,98,0.00,,,0.30,Wunderground v.1.15,2009-02-17 20:42:00,
2009-02-17 12:43:00,43.2,42.7,29.95,West,261,11.0,15.0,98,0.00,,,0.30,Wunderground v.1.15,2009-02-17 20:43:00,
2009-02-17 12:48:00,43.2,42.7,29.95,SW,224,10.0,18.0,98,0.00,,,0.30,Wunderground v.1.15,2009-02-17 20:48:00,
2009-02-17 12:53:00,43.1,42.6,29.95,SSW,209,9.0,15.0,98,0.00,,,0.30,Wunderground v.1.15,2009-02-17 20:53:00,
2009-02-17 12:54:00,43.1,42.6,29.95,SW,229,9.0,15.0,98,0.00,,,0.30,Wunderground v.1.15,2009-02-17 20:54:00,
2009-02-17 12:58:00,43.2,42.7,29.95,SW,233,7.0,24.0,98,0.00,,,0.30,Wunderground v.1.15,2009-02-17 20:58:00,
2009-02-17 12:59:00,43.1,42.6,29.95,WSW,254,10.0,24.0,98,0.00,,,0.30,Wunderground v.1.15,2009-02-17 20:59:00,
2009-02-17 13:00:00,43.1,42.6,29.95,WSW,237,6.0,10.0,98,0.00,,,0.30,Wunderground v.1.15,2009-02-17 21:00:00,
2009-02-17 13:03:00,43.1,42.6,29.95,SW,232,6.0,17.0,98,0.00,,,0.30,Wunderground v.1.15,2009-02-17 21:03:00,
2009-02-17 13:04:00,43.1,42.6,29.95,WSW,243,10.0,17.0,98,0.00,,,0.30,Wunderground v.1.15,2009-02-17 21:04:00,
2009-02-17 13:05:00,43.2,42.7,29.95,WSW,245,9.0,19.0,98,0.00,,,0.30,Wunderground v.1.15,2009-02-17 21:05:00,
2009-02-17 13:09:00,43.0,42.5,29.95,West,273,7.0,21.0,98,0.00,,,0.30,Wunderground v.1.15,2009-02-17 21:09:00,
2009-02-17 13:10:00,43.0,42.5,29.95,West,281,5.0,10.0,98,0.00,,,0.30,Wunderground v.1.15,2009-02-17 21:10:00,
2009-02-17 13:14:00,43.1,42.6,29.95,WSW,249,9.0,14.0,98,0.00,,,0.30,Wunderground v.1.15,2009-02-17 21:14:00,
2009-02-17 13:15:00,43.1,42.6,29.95,NW,321,7.0,14.0,98,0.00,,,0.30,Wunderground v.1.15,2009-02-17 21:15:00,
2009-02-17 13:19:00,42.9,42.4,29.95,SW,233,6.0,16.0,98,0.00,,,0.31,Wunderground v.1.15,2009-02-17 21:19:00,
2009-02-17 13:21:00,43.0,42.5,29.95,West,269,14.0,15.0,98,0.00,,,0.31,Wunderground v.1.15,2009-02-17 21:21:00,
2009-02-17 13:24:00,43.1,42.6,29.95,SW,230,7.0,16.0,98,0.00,,,0.31,Wunderground v.1.15,2009-02-17 21:24:00,
2009-02-17 13:26:00,43.0,42.5,29.95,SSW,206,9.0,16.0,98,0.00,,,0.31,Wunderground v.1.15,2009-02-17 21:26:00,
2009-02-17 13:29:00,42.8,42.3,29.95,West,265,6.0,19.0,98,0.05,,,0.32,Wunderground v.1.15,2009-02-17 21:29:00,
2009-02-17 13:31:00,42.8,42.3,29.94,SSW,204,6.0,11.0,98,0.05,,,0.32,Wunderground v.1.15,2009-02-17 21:31:00,
2009-02-17 13:34:00,42.9,42.4,29.95,WSW,252,7.0,19.0,98,0.11,,,0.33,Wunderground v.1.15,2009-02-17 21:34:00,
2009-02-17 13:36:00,43.0,42.5,29.95,SW,223,11.0,19.0,98,0.11,,,0.33,Wunderground v.1.15,2009-02-17 21:36:00,
2009-02-17 13:37:00,43.0,42.5,29.95,West,260,5.0,19.0,98,0.11,,,0.33,Wunderground v.1.15,2009-02-17 21:37:00,
2009-02-17 13:40:00,43.0,42.5,29.95,SW,236,9.0,10.0,98,0.09,,,0.33,Wunderground v.1.15,2009-02-17 21:40:00,
2009-02-17 13:41:00,43.0,42.5,29.95,SW,235,6.0,15.0,98,0.07,,,0.33,Wunderground v.1.15,2009-02-17 21:41:00,
2009-02-17 13:42:00,43.0,42.5,29.95,SSW,213,19.0,19.0,98,0.06,,,0.33,Wunderground v.1.15,2009-02-17 21:42:00,
2009-02-17 13:45:00,42.8,42.3,29.95,WSW,254,5.0,23.0,98,0.05,,,0.33,Wunderground v.1.15,2009-02-17 21:45:00,
2009-02-17 13:46:00,42.7,42.2,29.95,SW,231,9.0,23.0,98,0.04,,,0.33,Wunderground v.1.15,2009-02-17 21:46:00,
2009-02-17 13:47:00,42.7,42.2,29.95,SW,221,6.0,23.0,98,0.04,,,0.33,Wunderground v.1.15,2009-02-17 21:47:00,
2009-02-17 13:50:00,42.6,42.1,29.94,SW,224,4.0,9.0,98,0.00,,,0.33,Wunderground v.1.15,2009-02-17 21:50:00,
2009-02-17 13:52:00,42.8,42.3,29.95,West,262,5.0,11.0,98,0.00,,,0.33,Wunderground v.1.15,2009-02-17 21:52:00,
2009-02-17 13:55:00,42.9,42.4,29.95,SW,232,9.0,15.0,98,0.00,,,0.33,Wunderground v.1.15,2009-02-17 21:55:00,
2009-02-17 13:57:00,43.1,42.6,29.95,SW,236,10.0,15.0,98,0.00,,,0.34,Wunderground v.1.15,2009-02-17 21:57:00,
2009-02-17 13:58:00,43.1,42.6,29.95,SW,229,10.0,15.0,98,0.00,,,0.34,Wunderground v.1.15,2009-02-17 21:58:00,
2009-02-17 14:00:00,43.0,42.5,29.95,West,272,7.0,12.0,98,0.28,,,0.35,Wunderground v.1.15,2009-02-17 22:00:00,
2009-02-17 14:03:00,43.1,42.6,29.95,West,280,5.0,12.0,98,0.25,,,0.36,Wunderground v.1.15,2009-02-17 22:03:00,
2009-02-17 14:05:00,43.3,42.8,29.95,WSW,258,7.0,12.0,98,0.15,,,0.37,Wunderground v.1.15,2009-02-17 22:05:00,
2009-02-17 14:08:00,43.3,42.8,29.95,WSW,250,14.0,28.0,98,0.28,,,0.39,Wunderground v.1.15,2009-02-17 22:08:00,
2009-02-17 14:10:00,43.3,42.8,29.96,West,275,6.0,13.0,98,0.22,,,0.39,Wunderground v.1.15,2009-02-17 22:10:00,
2009-02-17 14:11:00,43.3,42.8,29.96,WSW,242,7.0,13.0,98,0.17,,,0.39,Wunderground v.1.15,2009-02-17 22:11:00,
2009-02-17 14:13:00,43.2,42.7,29.95,West,261,11.0,13.0,98,0.12,,,0.39,Wunderground v.1.15,2009-02-17 22:13:00,
2009-02-17 14:16:00,43.0,42.5,29.95,SW,229,11.0,13.0,98,0.07,,,0.39,Wunderground v.1.15,2009-02-17 22:16:00,
2009-02-17 14:18:00,42.6,42.1,29.96,WSW,250,9.0,13.0,98,0.06,,,0.39,Wunderground v.1.15,2009-02-17 22:18:00,
2009-02-17 14:21:00,42.7,42.2,29.96,WSW,241,11.0,13.0,98,0.05,,,0.39,Wunderground v.1.15,2009-02-17 22:21:00,
2009-02-17 14:23:00,42.9,42.4,29.96,SW,232,10.0,14.0,98,0.04,,,0.39,Wunderground v.1.15,2009-02-17 22:23:00,
2009-02-17 14:26:00,43.0,42.5,29.96,WSW,241,7.0,14.0,98,0.00,,,0.39,Wunderground v.1.15,2009-02-17 22:26:00,
2009-02-17 14:28:00,43.1,42.6,29.96,SW,226,6.0,14.0,98,0.00,,,0.39,Wunderground v.1.15,2009-02-17 22:28:00,
2009-02-17 14:31:00,43.2,42.7,29.96,WSW,242,6.0,17.0,98,0.00,,,0.39,Wunderground v.1.15,2009-02-17 22:31:00,
2009-02-17 14:32:00,43.2,42.7,29.97,WSW,245,5.0,17.0,98,0.00,,,0.39,Wunderground v.1.15,2009-02-17 22:32:00,
2009-02-17 14:33:00,43.2,42.7,29.96,SW,226,6.0,17.0,98,0.00,,,0.39,Wunderground v.1.15,2009-02-17 22:33:00,
2009-02-17 14:36:00,43.2,42.7,29.96,SW,233,11.0,17.0,98,0.00,,,0.39,Wunderground v.1.15,2009-02-17 22:36:00,
2009-02-17 14:37:00,43.2,42.7,29.96,West,270,5.0,17.0,98,0.00,,,0.39,Wunderground v.1.15,2009-02-17 22:37:00,
2009-02-17 14:38:00,43.2,42.7,29.96,SW,226,6.0,17.0,98,0.00,,,0.39,Wunderground v.1.15,2009-02-17 22:38:00,
2009-02-17 14:39:00,43.2,42.7,29.96,WSW,242,7.0,17.0,98,0.00,,,0.39,Wunderground v.1.15,2009-02-17 22:39:00,
2009-02-17 14:41:00,43.3,42.8,29.97,WSW,239,7.0,17.0,98,0.00,,,0.39,Wunderground v.1.15,2009-02-17 22:41:00,
2009-02-17 14:42:00,43.3,42.8,29.97,WNW,283,19.0,19.0,98,0.00,,,0.39,Wunderground v.1.15,2009-02-17 22:42:00,
2009-02-17 14:43:00,43.3,42.8,29.96,West,276,7.0,22.0,98,0.00,,,0.39,Wunderground v.1.15,2009-02-17 22:43:00,
2009-02-17 14:44:00,43.3,42.8,29.96,NNW,348,6.0,22.0,98,0.00,,,0.39,Wunderground v.1.15,2009-02-17 22:44:00,
2009-02-17 14:47:00,43.3,42.8,29.97,West,263,6.0,22.0,98,0.00,,,0.39,Wunderground v.1.15,2009-02-17 22:47:00,
2009-02-17 14:48:00,43.3,42.8,29.96,WSW,254,7.0,22.0,98,0.00,,,0.39,Wunderground v.1.15,2009-02-17 22:48:00,
2009-02-17 14:49:00,43.3,42.8,29.96,North,349,13.0,22.0,98,0.00,,,0.39,Wunderground v.1.15,2009-02-17 22:49:00,
2009-02-17 14:52:00,43.4,42.9,29.96,NNW,346,11.0,20.0,98,0.00,,,0.39,Wunderground v.1.15,2009-02-17 22:52:00,
2009-02-17 14:54:00,43.3,42.8,29.97,NW,325,13.0,20.0,98,0.00,,,0.39,Wunderground v.1.15,2009-02-17 22:54:00,
2009-02-17 14:57:00,43.2,42.7,29.97,West,273,13.0,22.0,98,0.00,,,0.39,Wunderground v.1.15,2009-02-17 22:57:00,
2009-02-17 14:58:00,43.2,42.7,29.97,WSW,237,6.0,22.0,98,0.00,,,0.39,Wunderground v.1.15,2009-02-17 22:58:00,
2009-02-17 14:59:00,43.2,42.7,29.97,SW,219,12.0,22.0,98,0.00,,,0.39,Wunderground v.1.15,2009-02-17 22:59:00,
2009-02-17 15:00:00,43.2,42.7,29.97,SSW,213,11.0,13.0,98,0.00,,,0.39,Wunderground v.1.15,2009-02-17 23:00:00,
2009-02-17 15:02:00,43.3,42.8,29.97,West,272,9.0,13.0,98,0.00,,,0.39,Wunderground v.1.15,2009-02-17 23:02:00,
2009-02-17 15:04:00,43.3,42.8,29.97,WSW,244,6.0,14.0,98,0.00,,,0.39,Wunderground v.1.15,2009-02-17 23:04:00,
2009-02-17 15:05:00,43.3,42.8,29.97,SW,218,3.0,14.0,98,0.00,,,0.40,Wunderground v.1.15,2009-02-17 23:05:00,
2009-02-17 15:07:00,43.3,42.8,29.97,WSW,249,8.0,15.0,98,0.00,,,0.40,Wunderground v.1.15,2009-02-17 23:07:00,
2009-02-17 15:09:00,43.3,42.8,29.98,West,266,5.0,15.0,98,0.00,,,0.40,Wunderground v.1.15,2009-02-17 23:09:00,
2009-02-17 15:10:00,43.4,42.9,29.97,SW,230,14.0,14.0,98,0.00,,,0.40,Wunderground v.1.15,2009-02-17 23:10:00,
2009-02-17 15:13:00,43.5,43.0,29.97,West,263,6.0,17.0,98,0.00,,,0.40,Wunderground v.1.15,2009-02-17 23:13:00,
2009-02-17 15:14:00,43.5,43.0,29.97,SW,222,6.0,23.0,98,0.07,,,0.41,Wunderground v.1.15,2009-02-17 23:14:00,
2009-02-17 15:15:00,43.5,43.0,29.97,SSW,213,13.0,23.0,98,0.07,,,0.41,Wunderground v.1.15,2009-02-17 23:15:00,
2009-02-17 15:18:00,43.5,43.0,29.98,WSW,251,10.0,23.0,98,0.07,,,0.41,Wunderground v.1.15,2009-02-17 23:18:00,
2009-02-17 15:19:00,43.5,43.0,29.98,SW,235,11.0,23.0,98,0.07,,,0.41,Wunderground v.1.15,2009-02-17 23:19:00,
2009-02-17 15:20:00,43.5,43.0,29.98,WSW,241,11.0,11.0,98,0.07,,,0.41,Wunderground v.1.15,2009-02-17 23:20:00,
2009-02-17 15:24:00,43.4,42.9,29.98,WNW,294,10.0,19.0,98,0.06,,,0.42,Wunderground v.1.15,2009-02-17 23:24:00,
2009-02-17 15:25:00,43.4,42.9,29.98,WSW,250,9.0,19.0,98,0.06,,,0.42,Wunderground v.1.15,2009-02-17 23:25:00,
2009-02-17 15:29:00,43.4,42.9,29.98,WSW,244,9.0,23.0,98,0.06,,,0.42,Wunderground v.1.15,2009-02-17 23:29:00,
2009-02-17 15:30:00,43.4,42.9,29.98,WSW,254,6.0,10.0,98,0.06,,,0.42,Wunderground v.1.15,2009-02-17 23:30:00,
2009-02-17 15:31:00,43.4,42.9,29.98,South,190,5.0,10.0,98,0.06,,,0.42,Wunderground v.1.15,2009-02-17 23:31:00,
2009-02-17 15:34:00,43.3,42.8,29.98,WNW,282,10.0,17.0,98,0.05,,,0.42,Wunderground v.1.15,2009-02-17 23:34:00,
2009-02-17 15:35:00,43.3,42.8,29.98,SW,236,13.0,17.0,98,0.05,,,0.42,Wunderground v.1.15,2009-02-17 23:35:00,
2009-02-17 15:36:00,43.3,42.8,29.99,WSW,256,4.0,17.0,98,0.05,,,0.42,Wunderground v.1.15,2009-02-17 23:36:00,
2009-02-17 15:39:00,43.2,42.7,29.98,West,275,6.0,17.0,98,0.04,,,0.42,Wunderground v.1.15,2009-02-17 23:39:00,
2009-02-17 15:40:00,43.2,42.7,29.98,WSW,254,9.0,15.0,98,0.04,,,0.42,Wunderground v.1.15,2009-02-17 23:40:00,
2009-02-17 15:41:00,43.2,42.7,29.98,West,268,9.0,22.0,98,0.00,,,0.42,Wunderground v.1.15,2009-02-17 23:41:00,
2009-02-17 15:44:00,43.3,42.8,29.99,West,261,6.0,22.0,98,0.00,,,0.42,Wunderground v.1.15,2009-02-17 23:44:00,
2009-02-17 15:45:00,43.3,42.8,29.99,WSW,247,6.0,22.0,98,0.00,,,0.42,Wunderground v.1.15,2009-02-17 23:45:00,
2009-02-17 15:46:00,43.4,42.9,29.99,WSW,244,7.0,22.0,98,0.00,,,0.42,Wunderground v.1.15,2009-02-17 23:46:00,
2009-02-17 15:47:00,43.4,42.9,29.99,West,281,5.0,22.0,98,0.00,,,0.42,Wunderground v.1.15,2009-02-17 23:47:00,
2009-02-17 15:49:00,43.5,43.0,29.99,WNW,292,19.0,22.0,98,0.00,,,0.42,Wunderground v.1.15,2009-02-17 23:49:00,
2009-02-17 15:50:00,43.4,42.9,29.98,WNW,286,7.0,21.0,98,0.00,,,0.42,Wunderground v.1.15,2009-02-17 23:50:00,
2009-02-17 15:51:00,43.4,42.9,29.99,West,277,11.0,21.0,98,0.00,,,0.42,Wunderground v.1.15,2009-02-17 23:51:00,
2009-02-17 15:52:00,43.4,42.9,29.99,WNW,293,12.0,21.0,98,0.00,,,0.42,Wunderground v.1.15,2009-02-17 23:52:00,
2009-02-17 15:54:00,43.3,42.8,29.99,NNW,330,14.0,21.0,98,0.00,,,0.42,Wunderground v.1.15,2009-02-17 23:54:00,
2009-02-17 15:55:00,43.3,42.8,29.99,WSW,257,10.0,21.0,98,0.00,,,0.42,Wunderground v.1.15,2009-02-17 23:55:00,
2009-02-17 15:56:00,43.2,42.7,29.99,WNW,292,15.0,21.0,98,0.00,,,0.42,Wunderground v.1.15,2009-02-17 23:56:00,
2009-02-17 15:58:00,43.2,42.7,29.99,WNW,296,10.0,21.0,98,0.00,,,0.42,Wunderground v.1.15,2009-02-17 23:58:00,
2009-02-17 15:59:00,43.2,42.7,29.99,West,272,11.0,21.0,98,0.00,,,0.42,Wunderground v.1.15,2009-02-17 23:59:00,
2009-02-17 16:00:00,43.2,42.7,29.99,WSW,242,11.0,15.0,98,0.00,,,0.42,Wunderground v.1.15,2009-02-18 00:00:00,
2009-02-17 16:02:00,43.2,42.7,29.99,West,269,6.0,15.0,98,0.00,,,0.42,Wunderground v.1.15,2009-02-18 00:02:00,
2009-02-17 16:03:00,43.2,42.7,29.99,West,265,5.0,15.0,98,0.00,,,0.42,Wunderground v.1.15,2009-02-18 00:03:00,
2009-02-17 16:05:00,43.3,42.8,29.99,WSW,248,8.0,16.0,98,0.00,,,0.42,Wunderground v.1.15,2009-02-18 00:05:00,
2009-02-17 16:07:00,43.3,42.8,29.99,WSW,248,6.0,16.0,98,0.00,,,0.42,Wunderground v.1.15,2009-02-18 00:07:00,
2009-02-17 16:09:00,43.3,42.8,29.99,WNW,296,12.0,16.0,98,0.00,,,0.42,Wunderground v.1.15,2009-02-18 00:09:00,
2009-02-17 16:10:00,43.3,42.8,29.99,WSW,253,10.0,10.0,98,0.00,,,0.42,Wunderground v.1.15,2009-02-18 00:10:00,
2009-02-17 16:12:00,43.3,42.8,29.99,NNW,335,10.0,19.0,98,0.00,,,0.42,Wunderground v.1.15,2009-02-18 00:12:00,
2009-02-17 16:14:00,43.3,42.8,29.99,WSW,240,9.0,19.0,98,0.00,,,0.42,Wunderground v.1.15,2009-02-18 00:14:00,
2009-02-17 16:15:00,43.4,42.9,29.99,SSW,209,10.0,19.0,98,0.00,,,0.42,Wunderground v.1.15,2009-02-18 00:15:00,
2009-02-17 16:16:00,43.4,42.9,29.99,WSW,237,5.0,19.0,98,0.00,,,0.42,Wunderground v.1.15,2009-02-18 00:16:00,
2009-02-17 16:17:00,43.4,42.9,29.99,WSW,257,4.0,19.0,98,0.00,,,0.42,Wunderground v.1.15,2009-02-18 00:17:00,
2009-02-17 16:19:00,43.4,42.9,29.99,WNW,291,6.0,19.0,98,0.00,,,0.42,Wunderground v.1.15,2009-02-18 00:19:00,
2009-02-17 16:20:00,43.4,42.9,29.99,WNW,283,5.0,11.0,98,0.00,,,0.42,Wunderground v.1.15,2009-02-18 00:20:00,
2009-02-17 16:21:00,43.4,42.9,29.99,WSW,240,7.0,12.0,98,0.00,,,0.42,Wunderground v.1.15,2009-02-18 00:21:00,
2009-02-17 16:22:00,43.3,42.8,29.99,WSW,242,5.0,12.0,98,0.00,,,0.42,Wunderground v.1.15,2009-02-18 00:22:00,
2009-02-17 16:25:00,43.3,42.8,29.99,SW,236,6.0,17.0,98,0.00,,,0.42,Wunderground v.1.15,2009-02-18 00:25:00,
2009-02-17 16:26:00,43.3,42.8,29.99,WSW,244,6.0,17.0,98,0.00,,,0.42,Wunderground v.1.15,2009-02-18 00:26:00,
2009-02-17 16:28:00,43.4,42.9,30.00,West,281,4.0,17.0,98,0.00,,,0.42,Wunderground v.1.15,2009-02-18 00:28:00,
2009-02-17 16:30:00,43.4,42.9,30.00,SW,219,6.0,7.0,98,0.00,,,0.42,Wunderground v.1.15,2009-02-18 00:30:00,
2009-02-17 16:31:00,43.3,42.8,30.00,SW,232,7.0,10.0,98,0.00,,,0.42,Wunderground v.1.15,2009-02-18 00:31:00,
2009-02-17 16:33:00,43.3,42.8,30.00,WSW,251,3.0,14.0,98,0.00,,,0.42,Wunderground v.1.15,2009-02-18 00:33:00,
2009-02-17 16:35:00,43.3,42.8,30.00,SW,232,5.0,20.0,98,0.00,,,0.42,Wunderground v.1.15,2009-02-18 00:35:00,
2009-02-17 16:36:00,43.3,42.8,30.00,West,265,5.0,20.0,98,0.00,,,0.42,Wunderground v.1.15,2009-02-18 00:36:00,
2009-02-17 16:37:00,43.2,42.7,30.00,WSW,241,6.0,20.0,98,0.00,,,0.42,Wunderground v.1.15,2009-02-18 00:37:00,
2009-02-17 16:38:00,43.2,42.7,30.00,WNW,294,4.0,20.0,98,0.00,,,0.42,Wunderground v.1.15,2009-02-18 00:38:00,
2009-02-17 16:40:00,43.1,42.6,30.00,WSW,238,6.0,10.0,98,0.00,,,0.42,Wunderground v.1.15,2009-02-18 00:40:00,
2009-02-17 16:41:00,43.1,42.6,30.00,WNW,297,6.0,10.0,98,0.00,,,0.42,Wunderground v.1.15,2009-02-18 00:41:00,
2009-02-17 16:42:00,43.1,42.6,30.00,SW,223,6.0,11.0,98,0.00,,,0.42,Wunderground v.1.15,2009-02-18 00:42:00,
2009-02-17 16:43:00,43.1,42.6,30.00,SW,231,8.0,11.0,98,0.00,,,0.42,Wunderground v.1.15,2009-02-18 00:43:00,
2009-02-17 16:46:00,43.1,42.6,30.00,WSW,252,4.0,11.0,98,0.00,,,0.42,Wunderground v.1.15,2009-02-18 00:46:00,
2009-02-17 16:47:00,43.1,42.6,30.00,SW,232,5.0,11.0,98,0.00,,,0.42,Wunderground v.1.15,2009-02-18 00:47:00,
2009-02-17 16:48:00,43.1,42.6,30.00,SW,236,5.0,11.0,98,0.00,,,0.42,Wunderground v.1.15,2009-02-18 00:48:00,
2009-02-17 16:51:00,43.1,42.6,30.00,WSW,246,5.0,10.0,98,0.00,,,0.42,Wunderground v.1.15,2009-02-18 00:51:00,
2009-02-17 16:52:00,43.0,42.5,30.00,WSW,248,7.0,10.0,98,0.00,,,0.42,Wunderground v.1.15,2009-02-18 00:52:00,
2009-02-17 16:53:00,43.0,42.5,30.00,WSW,246,4.0,10.0,98,0.00,,,0.42,Wunderground v.1.15,2009-02-18 00:53:00,
2009-02-17 16:56:00,43.0,42.5,30.00,WSW,251,5.0,13.0,98,0.00,,,0.42,Wunderground v.1.15,2009-02-18 00:56:00,
2009-02-17 16:57:00,42.9,42.4,30.00,SW,234,6.0,13.0,98,0.00,,,0.42,Wunderground v.1.15,2009-02-18 00:57:00,
2009-02-17 16:58:00,42.9,42.4,30.00,SW,227,7.0,13.0,98,0.00,,,0.42,Wunderground v.1.15,2009-02-18 00:58:00,
2009-02-17 16:59:00,42.8,42.3,30.00,SW,236,3.0,13.0,98,0.00,,,0.42,Wunderground v.1.15,2009-02-18 00:59:00,
2009-02-17 17:02:00,42.7,42.2,30.00,WSW,244,4.0,15.0,98,0.00,,,0.42,Wunderground v.1.15,2009-02-18 01:02:00,
2009-02-17 17:03:00,42.7,42.2,30.00,SW,235,4.0,15.0,98,0.00,,,0.42,Wunderground v.1.15,2009-02-18 01:03:00,
2009-02-17 17:04:00,42.7,42.2,30.00,SW,223,8.0,15.0,98,0.00,,,0.42,Wunderground v.1.15,2009-02-18 01:04:00,
2009-02-17 17:07:00,42.7,42.2,30.01,WSW,246,6.0,17.0,98,0.00,,,0.42,Wunderground v.1.15,2009-02-18 01:07:00,
2009-02-17 17:08:00,42.7,42.2,30.01,SW,229,10.0,17.0,98,0.00,,,0.42,Wunderground v.1.15,2009-02-18 01:08:00,
2009-02-17 17:10:00,42.8,42.3,30.01,SW,217,7.0,9.0,98,0.00,,,0.42,Wunderground v.1.15,2009-02-18 01:10:00,
2009-02-17 17:12:00,42.8,42.3,30.01,SW,235,5.0,15.0,98,0.00,,,0.42,Wunderground v.1.15,2009-02-18 01:12:00,
2009-02-17 17:13:00,42.9,42.4,30.01,WSW,244,9.0,15.0,98,0.00,,,0.42,Wunderground v.1.15,2009-02-18 01:13:00,
2009-02-17 17:15:00,43.0,42.5,30.01,SW,223,3.0,15.0,98,0.00,,,0.42,Wunderground v.1.15,2009-02-18 01:15:00,
2009-02-17 17:17:00,43.1,42.8,30.01,WSW,251,10.0,18.0,99,0.00,,,0.42,Wunderground v.1.15,2009-02-18 01:17:00,
2009-02-17 17:18:00,43.1,42.8,30.01,WSW,240,5.0,18.0,99,0.00,,,0.42,Wunderground v.1.15,2009-02-18 01:18:00,
2009-02-17 17:19:00,43.1,42.8,30.01,SW,229,8.0,18.0,99,0.00,,,0.42,Wunderground v.1.15,2009-02-18 01:19:00,
2009-02-17 17:20:00,43.1,42.8,30.01,WSW,241,5.0,8.0,99,0.00,,,0.42,Wunderground v.1.15,2009-02-18 01:20:00,
2009-02-17 17:22:00,43.2,42.9,30.01,WSW,246,8.0,11.0,99,0.00,,,0.42,Wunderground v.1.15,2009-02-18 01:22:00,
2009-02-17 17:23:00,43.2,42.9,30.01,SW,229,9.0,14.0,99,0.00,,,0.42,Wunderground v.1.15,2009-02-18 01:23:00,
2009-02-17 17:24:00,43.2,42.9,30.01,SW,236,7.0,14.0,99,0.00,,,0.42,Wunderground v.1.15,2009-02-18 01:24:00,
2009-02-17 17:25:00,43.2,42.9,30.01,West,272,4.0,19.0,99,0.00,,,0.42,Wunderground v.1.15,2009-02-18 01:25:00,
2009-02-17 17:27:00,43.2,42.9,30.01,WNW,298,7.0,24.0,99,0.00,,,0.42,Wunderground v.1.15,2009-02-18 01:27:00,
2009-02-17 17:29:00,43.2,42.9,30.01,WSW,240,9.0,24.0,99,0.00,,,0.42,Wunderground v.1.15,2009-02-18 01:29:00,
2009-02-17 17:30:00,43.2,42.9,30.01,SW,221,7.0,12.0,99,0.00,,,0.42,Wunderground v.1.15,2009-02-18 01:30:00,
2009-02-17 17:32:00,43.2,42.9,30.01,WNW,290,9.0,17.0,99,0.00,,,0.42,Wunderground v.1.15,2009-02-18 01:32:00,
2009-02-17 17:34:00,43.2,42.9,30.01,WSW,244,10.0,17.0,99,0.00,,,0.42,Wunderground v.1.15,2009-02-18 01:34:00,
2009-02-17 17:35:00,43.2,42.9,30.02,WSW,255,5.0,17.0,99,0.00,,,0.42,Wunderground v.1.15,2009-02-18 01:35:00,
2009-02-17 17:38:00,43.2,42.9,30.02,WNW,286,9.0,17.0,99,0.00,,,0.42,Wunderground v.1.15,2009-02-18 01:38:00,
2009-02-17 17:39:00,43.2,42.9,30.02,West,261,9.0,17.0,99,0.00,,,0.42,Wunderground v.1.15,2009-02-18 01:39:00,
2009-02-17 17:41:00,43.3,43.0,30.02,SW,225,6.0,14.0,99,0.00,,,0.42,Wunderground v.1.15,2009-02-18 01:41:00,
2009-02-17 17:43:00,43.3,43.0,30.02,WNW,285,4.0,14.0,99,0.00,,,0.42,Wunderground v.1.15,2009-02-18 01:43:00,
2009-02-17 17:44:00,43.3,43.0,30.02,West,263,4.0,16.0,99,0.00,,,0.42,Wunderground v.1.15,2009-02-18 01:44:00,
2009-02-17 17:46:00,43.2,42.9,30.02,West,259,6.0,16.0,99,0.00,,,0.42,Wunderground v.1.15,2009-02-18 01:46:00,
2009-02-17 17:48:00,43.2,42.9,30.02,SW,235,6.0,16.0,99,0.00,,,0.42,Wunderground v.1.15,2009-02-18 01:48:00,
2009-02-17 17:49:00,43.2,42.9,30.02,WSW,246,9.0,16.0,99,0.00,,,0.42,Wunderground v.1.15,2009-02-18 01:49:00,
2009-02-17 17:50:00,43.2,42.9,30.02,WSW,240,7.0,9.0,99,0.00,,,0.42,Wunderground v.1.15,2009-02-18 01:50:00,
2009-02-17 17:51:00,43.1,42.8,30.02,WSW,242,10.0,14.0,99,0.00,,,0.42,Wunderground v.1.15,2009-02-18 01:51:00,
2009-02-17 17:53:00,43.1,42.8,30.02,WSW,241,9.0,17.0,99,0.00,,,0.42,Wunderground v.1.15,2009-02-18 01:53:00,
2009-02-17 17:54:00,43.2,42.9,30.02,West,265,4.0,17.0,99,0.00,,,0.42,Wunderground v.1.15,2009-02-18 01:54:00,
2009-02-17 17:55:00,43.2,42.9,30.02,WSW,240,5.0,17.0,99,0.00,,,0.42,Wunderground v.1.15,2009-02-18 01:55:00,
2009-02-17 17:57:00,43.2,42.9,30.02,West,265,7.0,17.0,99,0.00,,,0.42,Wunderground v.1.15,2009-02-18 01:57:00,
2009-02-17 17:58:00,43.2,42.9,30.03,WSW,245,5.0,17.0,99,0.00,,,0.42,Wunderground v.1.15,2009-02-18 01:58:00,
2009-02-17 18:00:00,43.2,42.9,30.03,West,274,7.0,8.0,99,0.00,,,0.42,Wunderground v.1.15,2009-02-18 02:00:00,
2009-02-17 18:02:00,43.1,42.8,30.03,SW,226,10.0,12.0,99,0.00,,,0.42,Wunderground v.1.15,2009-02-18 02:02:00,
2009-02-17 18:03:00,43.2,42.9,30.03,West,272,4.0,12.0,99,0.00,,,0.42,Wunderground v.1.15,2009-02-18 02:03:00,
2009-02-17 18:05:00,43.2,42.9,30.03,WSW,249,5.0,12.0,99,0.00,,,0.42,Wunderground v.1.15,2009-02-18 02:05:00,
2009-02-17 18:07:00,43.2,42.9,30.03,SW,233,5.0,12.0,99,0.00,,,0.42,Wunderground v.1.15,2009-02-18 02:07:00,
2009-02-17 18:08:00,43.2,42.9,30.03,WSW,250,7.0,15.0,99,0.00,,,0.42,Wunderground v.1.15,2009-02-18 02:08:00,
2009-02-17 18:10:00,43.3,43.0,30.03,West,281,10.0,10.0,99,0.00,,,0.42,Wunderground v.1.15,2009-02-18 02:10:00,
2009-02-17 18:11:00,43.3,43.0,30.03,SW,221,9.0,11.0,99,0.00,,,0.42,Wunderground v.1.15,2009-02-18 02:11:00,
2009-02-17 18:12:00,43.3,43.0,30.04,SW,228,5.0,11.0,99,0.00,,,0.42,Wunderground v.1.15,2009-02-18 02:12:00,
2009-02-17 18:13:00,43.3,43.0,30.04,WSW,252,4.0,14.0,99,0.00,,,0.42,Wunderground v.1.15,2009-02-18 02:13:00,
2009-02-17 18:16:00,43.3,43.0,30.04,WSW,242,5.0,14.0,99,0.00,,,0.42,Wunderground v.1.15,2009-02-18 02:16:00,
2009-02-17 18:17:00,43.3,43.0,30.04,WSW,255,6.0,14.0,99,0.00,,,0.42,Wunderground v.1.15,2009-02-18 02:17:00,
2009-02-17 18:18:00,43.3,43.0,30.04,SW,231,7.0,14.0,99,0.00,,,0.42,Wunderground v.1.15,2009-02-18 02:18:00,
2009-02-17 18:21:00,43.3,43.0,30.04,West,273,6.0,6.0,99,0.00,,,0.42,Wunderground v.1.15,2009-02-18 02:21:00,
2009-02-17 18:22:00,43.2,42.9,30.04,WNW,302,6.0,13.0,99,0.00,,,0.42,Wunderground v.1.15,2009-02-18 02:22:00,
2009-02-17 18:23:00,43.2,42.9,30.04,WNW,284,12.0,19.0,99,0.00,,,0.43,Wunderground v.1.15,2009-02-18 02:23:00,
2009-02-17 18:26:00,43.2,42.9,30.04,WNW,294,8.0,19.0,99,0.00,,,0.43,Wunderground v.1.15,2009-02-18 02:26:00,
2009-02-17 18:27:00,43.2,42.9,30.04,WSW,246,3.0,19.0,99,0.00,,,0.43,Wunderground v.1.15,2009-02-18 02:27:00,
2009-02-17 18:28:00,43.3,43.0,30.04,WSW,252,5.0,19.0,99,0.00,,,0.43,Wunderground v.1.15,2009-02-18 02:28:00,
2009-02-17 18:31:00,43.3,43.0,30.04,NW,311,17.0,23.0,99,0.00,,,0.43,Wunderground v.1.15,2009-02-18 02:31:00,
2009-02-17 18:32:00,43.3,43.0,30.04,WNW,298,9.0,23.0,99,0.00,,,0.43,Wunderground v.1.15,2009-02-18 02:32:00,
2009-02-17 18:35:00,43.3,43.0,30.05,West,259,6.0,23.0,99,0.00,,,0.43,Wunderground v.1.15,2009-02-18 02:35:00,
2009-02-17 18:36:00,43.3,43.0,30.05,West,260,4.0,23.0,99,0.05,,,0.44,Wunderground v.1.15,2009-02-18 02:36:00,
2009-02-17 18:37:00,43.3,43.0,30.05,WSW,242,5.0,23.0,99,0.05,,,0.44,Wunderground v.1.15,2009-02-18 02:37:00,
2009-02-17 18:40:00,43.1,42.8,30.05,WSW,257,6.0,8.0,99,0.27,,,0.45,Wunderground v.1.15,2009-02-18 02:40:00,
2009-02-17 18:41:00,43.0,42.7,30.05,West,263,3.0,8.0,99,0.18,,,0.45,Wunderground v.1.15,2009-02-18 02:41:00,
2009-02-17 18:42:00,43.0,42.7,30.05,West,275,3.0,8.0,99,0.15,,,0.45,Wunderground v.1.15,2009-02-18 02:42:00,
2009-02-17 18:45:00,43.0,42.5,30.05,SW,221,2.0,8.0,98,0.11,,,0.46,Wunderground v.1.15,2009-02-18 02:45:00,
2009-02-17 18:46:00,43.0,42.5,30.05,West,259,3.0,8.0,98,0.11,,,0.46,Wunderground v.1.15,2009-02-18 02:46:00,
2009-02-17 18:47:00,43.1,42.8,30.05,WSW,244,4.0,8.0,99,0.11,,,0.46,Wunderground v.1.15,2009-02-18 02:47:00,
2009-02-17 18:48:00,43.1,42.8,30.05,SSW,202,10.0,13.0,99,0.14,,,0.47,Wunderground v.1.15,2009-02-18 02:48:00,
2009-02-17 18:51:00,43.2,42.9,30.05,West,265,5.0,13.0,99,0.14,,,0.47,Wunderground v.1.15,2009-02-18 02:51:00,
2009-02-17 18:52:00,43.3,43.0,30.05,WNW,288,8.0,13.0,99,0.13,,,0.47,Wunderground v.1.15,2009-02-18 02:52:00,
2009-02-17 18:53:00,43.3,43.0,30.05,SW,232,11.0,13.0,99,0.11,,,0.47,Wunderground v.1.15,2009-02-18 02:53:00,
2009-02-17 18:56:00,43.3,43.0,30.05,West,268,4.0,13.0,99,0.07,,,0.47,Wunderground v.1.15,2009-02-18 02:56:00,
2009-02-17 18:57:00,43.3,43.0,30.05,West,267,4.0,13.0,99,0.07,,,0.47,Wunderground v.1.15,2009-02-18 02:57:00,
2009-02-17 18:58:00,43.2,42.9,30.05,SW,231,7.0,15.0,99,0.06,,,0.47,Wunderground v.1.15,2009-02-18 02:58:00,
2009-02-17 19:02:00,43.3,43.0,30.05,SW,230,9.0,15.0,99,0.04,,,0.47,Wunderground v.1.15,2009-02-18 03:02:00,
2009-02-17 19:03:00,43.3,43.0,30.05,SW,232,5.0,15.0,99,0.04,,,0.47,Wunderground v.1.15,2009-02-18 03:03:00,
2009-02-17 19:04:00,43.3,43.0,30.05,West,269,11.0,16.0,99,0.04,,,0.47,Wunderground v.1.15,2009-02-18 03:04:00,
2009-02-17 19:07:00,43.3,43.0,30.05,WSW,250,5.0,16.0,99,0.00,,,0.47,Wunderground v.1.15,2009-02-18 03:07:00,
2009-02-17 19:08:00,43.3,43.0,30.06,WNW,283,12.0,16.0,99,0.00,,,0.47,Wunderground v.1.15,2009-02-18 03:08:00,
2009-02-17 19:09:00,43.4,43.1,30.06,WSW,250,9.0,16.0,99,0.00,,,0.47,Wunderground v.1.15,2009-02-18 03:09:00,
2009-02-17 19:12:00,43.4,43.1,30.06,West,268,4.0,18.0,99,0.00,,,0.47,Wunderground v.1.15,2009-02-18 03:12:00,
2009-02-17 19:13:00,43.4,43.1,30.06,WNW,287,13.0,18.0,99,0.00,,,0.47,Wunderground v.1.15,2009-02-18 03:13:00,
2009-02-17 19:14:00,43.4,43.1,30.06,SW,236,9.0,18.0,99,0.00,,,0.47,Wunderground v.1.15,2009-02-18 03:14:00,
2009-02-17 19:17:00,43.3,43.0,30.06,West,263,10.0,18.0,99,0.00,,,0.47,Wunderground v.1.15,2009-02-18 03:17:00,
2009-02-17 19:18:00,43.3,43.0,30.07,West,263,5.0,18.0,99,0.00,,,0.47,Wunderground v.1.15,2009-02-18 03:18:00,
2009-02-17 19:19:00,43.3,43.0,30.07,WSW,255,4.0,18.0,99,0.00,,,0.47,Wunderground v.1.15,2009-02-18 03:19:00,
2009-02-17 19:22:00,43.3,43.0,30.06,NW,313,7.0,12.0,99,0.00,,,0.47,Wunderground v.1.15,2009-02-18 03:22:00,
2009-02-17 19:24:00,43.3,43.0,30.07,WSW,251,4.0,13.0,99,0.00,,,0.47,Wunderground v.1.15,2009-02-18 03:24:00,
2009-02-17 19:28:00,43.4,43.1,30.07,West,269,13.0,13.0,99,0.00,,,0.47,Wunderground v.1.15,2009-02-18 03:28:00,
2009-02-17 19:29:00,43.4,43.1,30.07,West,277,4.0,13.0,99,0.00,,,0.47,Wunderground v.1.15,2009-02-18 03:29:00,
2009-02-17 19:30:00,43.4,43.1,30.07,West,260,7.0,7.0,99,0.00,,,0.47,Wunderground v.1.15,2009-02-18 03:30:00,
2009-02-17 19:33:00,43.5,43.2,30.07,NW,315,11.0,11.0,99,0.00,,,0.47,Wunderground v.1.15,2009-02-18 03:33:00,
2009-02-17 19:34:00,43.5,43.2,30.07,West,279,14.0,15.0,99,0.00,,,0.47,Wunderground v.1.15,2009-02-18 03:34:00,
2009-02-17 19:35:00,43.5,43.2,30.07,West,261,7.0,15.0,99,0.00,,,0.47,Wunderground v.1.15,2009-02-18 03:35:00,
2009-02-17 19:38:00,43.5,43.2,30.08,West,261,4.0,15.0,99,0.00,,,0.47,Wunderground v.1.15,2009-02-18 03:38:00,
2009-02-17 19:39:00,43.5,43.2,30.07,WSW,251,5.0,15.0,99,0.00,,,0.47,Wunderground v.1.15,2009-02-18 03:39:00,
2009-02-17 19:40:00,43.5,43.2,30.07,West,268,6.0,8.0,99,0.00,,,0.47,Wunderground v.1.15,2009-02-18 03:40:00,
2009-02-17 19:43:00,43.5,43.2,30.08,WSW,239,4.0,8.0,99,0.00,,,0.47,Wunderground v.1.15,2009-02-18 03:43:00,
2009-02-17 19:44:00,43.5,43.2,30.08,WSW,254,4.0,8.0,99,0.00,,,0.47,Wunderground v.1.15,2009-02-18 03:44:00,
2009-02-17 19:45:00,43.5,43.2,30.08,WSW,241,6.0,8.0,99,0.00,,,0.47,Wunderground v.1.15,2009-02-18 03:45:00,
2009-02-17 19:49:00,43.6,43.3,30.08,WSW,252,4.0,10.0,99,0.00,,,0.47,Wunderground v.1.15,2009-02-18 03:49:00,
2009-02-17 19:50:00,43.6,43.3,30.08,WNW,300,5.0,7.0,99,0.00,,,0.47,Wunderground v.1.15,2009-02-18 03:50:00,
2009-02-17 19:54:00,43.5,43.2,30.09,WSW,238,4.0,16.0,99,0.00,,,0.47,Wunderground v.1.15,2009-02-18 03:54:00,
2009-02-17 19:55:00,43.6,43.3,30.09,WSW,238,4.0,16.0,99,0.00,,,0.47,Wunderground v.1.15,2009-02-18 03:55:00,
2009-02-17 20:00:00,43.5,43.2,30.09,SW,219,15.0,15.0,99,0.00,,,0.47,Wunderground v.1.15,2009-02-18 04:00:00,
2009-02-17 20:01:00,43.5,43.2,30.09,SW,223,10.0,15.0,99,0.00,,,0.47,Wunderground v.1.15,2009-02-18 04:01:00,
2009-02-17 20:05:00,43.4,43.1,30.09,SW,231,5.0,15.0,99,0.00,,,0.47,Wunderground v.1.15,2009-02-18 04:05:00,
2009-02-17 20:06:00,43.4,43.1,30.09,West,274,11.0,15.0,99,0.00,,,0.47,Wunderground v.1.15,2009-02-18 04:06:00,
2009-02-17 20:10:00,43.4,43.1,30.09,NW,322,6.0,10.0,99,0.00,,,0.47,Wunderground v.1.15,2009-02-18 04:10:00,
2009-02-17 20:11:00,43.4,43.1,30.09,West,272,4.0,11.0,99,0.00,,,0.47,Wunderground v.1.15,2009-02-18 04:11:00,
2009-02-17 20:12:00,43.4,43.1,30.09,WSW,249,3.0,11.0,99,0.00,,,0.47,Wunderground v.1.15,2009-02-18 04:12:00,
2009-02-17 20:16:00,43.5,43.2,30.09,SW,223,4.0,11.0,99,0.00,,,0.47,Wunderground v.1.15,2009-02-18 04:16:00,
2009-02-17 20:21:00,43.5,43.2,30.09,West,263,3.0,10.0,99,0.00,,,0.47,Wunderground v.1.15,2009-02-18 04:21:00,
2009-02-17 20:26:00,43.4,43.1,30.10,SW,227,5.0,10.0,99,0.00,,,0.47,Wunderground v.1.15,2009-02-18 04:26:00,
2009-02-17 20:27:00,43.4,43.1,30.10,WSW,246,4.0,10.0,99,0.00,,,0.47,Wunderground v.1.15,2009-02-18 04:27:00,
2009-02-17 20:31:00,43.4,43.1,30.10,WSW,244,5.0,11.0,99,0.00,,,0.47,Wunderground v.1.15,2009-02-18 04:31:00,
2009-02-17 20:32:00,43.4,43.1,30.10,WSW,256,4.0,11.0,99,0.00,,,0.47,Wunderground v.1.15,2009-02-18 04:32:00,
2009-02-17 20:36:00,43.4,43.1,30.10,SSW,211,4.0,11.0,99,0.00,,,0.47,Wunderground v.1.15,2009-02-18 04:36:00,
2009-02-17 20:37:00,43.4,43.1,30.10,WSW,255,6.0,11.0,99,0.00,,,0.47,Wunderground v.1.15,2009-02-18 04:37:00,
2009-02-17 20:38:00,43.4,43.1,30.10,SW,233,4.0,11.0,99,0.00,,,0.47,Wunderground v.1.15,2009-02-18 04:38:00,
2009-02-17 20:42:00,43.4,43.1,30.10,West,261,3.0,13.0,99,0.00,,,0.47,Wunderground v.1.15,2009-02-18 04:42:00,
2009-02-17 20:43:00,43.4,43.1,30.10,West,271,5.0,13.0,99,0.00,,,0.47,Wunderground v.1.15,2009-02-18 04:43:00,
2009-02-17 20:47:00,43.5,43.2,30.11,SW,225,8.0,13.0,99,0.00,,,0.47,Wunderground v.1.15,2009-02-18 04:47:00,
2009-02-17 20:48:00,43.5,43.2,30.11,SSW,207,6.0,13.0,99,0.00,,,0.47,Wunderground v.1.15,2009-02-18 04:48:00,
2009-02-17 20:52:00,43.5,43.2,30.11,WSW,244,2.0,6.0,99,0.00,,,0.47,Wunderground v.1.15,2009-02-18 04:52:00,
2009-02-17 20:53:00,43.5,43.2,30.11,WSW,246,5.0,6.0,99,0.00,,,0.47,Wunderground v.1.15,2009-02-18 04:53:00,
2009-02-17 20:57:00,43.5,43.2,30.11,SW,224,4.0,11.0,99,0.00,,,0.47,Wunderground v.1.15,2009-02-18 04:57:00,
2009-02-17 20:58:00,43.5,43.2,30.11,WNW,292,3.0,11.0,99,0.00,,,0.47,Wunderground v.1.15,2009-02-18 04:58:00,
2009-02-17 21:00:00,43.6,43.3,30.11,West,276,9.0,9.0,99,0.00,,,0.47,Wunderground v.1.15,2009-02-18 05:00:00,
2009-02-17 21:05:00,43.6,43.3,30.12,West,267,4.0,14.0,99,0.00,,,0.47,Wunderground v.1.15,2009-02-18 05:05:00,
2009-02-17 21:06:00,43.6,43.3,30.12,WSW,240,6.0,14.0,99,0.00,,,0.47,Wunderground v.1.15,2009-02-18 05:06:00,
2009-02-17 21:10:00,43.5,43.2,30.12,WSW,258,3.0,6.0,99,0.00,,,0.47,Wunderground v.1.15,2009-02-18 05:10:00,
2009-02-17 21:11:00,43.5,43.2,30.12,WSW,244,3.0,6.0,99,0.00,,,0.47,Wunderground v.1.15,2009-02-18 05:11:00,
2009-02-17 21:15:00,43.3,43.0,30.12,WSW,254,6.0,8.0,99,0.00,,,0.47,Wunderground v.1.15,2009-02-18 05:15:00,
2009-02-17 21:16:00,43.3,43.0,30.12,SW,230,5.0,9.0,99,0.00,,,0.47,Wunderground v.1.15,2009-02-18 05:16:00,
2009-02-17 21:20:00,43.1,42.8,30.13,SW,234,2.0,5.0,99,0.00,,,0.47,Wunderground v.1.15,2009-02-18 05:20:00,
2009-02-17 21:21:00,43.1,42.6,30.13,SW,234,4.0,5.0,98,0.00,,,0.47,Wunderground v.1.15,2009-02-18 05:21:00,
2009-02-17 21:25:00,42.9,42.4,30.13,WSW,245,4.0,5.0,98,0.00,,,0.47,Wunderground v.1.15,2009-02-18 05:25:00,
2009-02-17 21:26:00,42.8,42.3,30.13,WSW,245,2.0,5.0,98,0.00,,,0.47,Wunderground v.1.15,2009-02-18 05:26:00,
2009-02-17 21:31:00,42.8,42.5,30.13,WSW,246,4.0,5.0,99,0.00,,,0.47,Wunderground v.1.15,2009-02-18 05:31:00,
2009-02-17 21:36:00,42.8,42.5,30.13,WSW,248,3.0,5.0,99,0.00,,,0.47,Wunderground v.1.15,2009-02-18 05:36:00,
2009-02-17 21:37:00,42.8,42.5,30.13,WSW,248,2.0,5.0,99,0.00,,,0.47,Wunderground v.1.15,2009-02-18 05:37:00,
2009-02-17 21:41:00,42.7,42.4,30.13,WSW,246,3.0,6.0,99,0.00,,,0.47,Wunderground v.1.15,2009-02-18 05:41:00,
2009-02-17 21:42:00,42.7,42.4,30.13,WSW,247,3.0,6.0,99,0.00,,,0.47,Wunderground v.1.15,2009-02-18 05:42:00,
2009-02-17 21:46:00,42.6,42.3,30.13,WSW,251,2.0,6.0,99,0.00,,,0.47,Wunderground v.1.15,2009-02-18 05:46:00,
2009-02-17 21:47:00,42.6,42.3,30.13,WSW,248,3.0,6.0,99,0.00,,,0.47,Wunderground v.1.15,2009-02-18 05:47:00,
2009-02-17 21:51:00,42.5,42.0,30.14,WSW,241,3.0,4.0,98,0.00,,,0.47,Wunderground v.1.15,2009-02-18 05:51:00,
2009-02-17 21:52:00,42.4,41.9,30.14,WSW,244,4.0,5.0,98,0.00,,,0.47,Wunderground v.1.15,2009-02-18 05:52:00,
2009-02-17 21:53:00,42.4,41.9,30.14,WSW,244,4.0,5.0,98,0.00,,,0.47,Wunderground v.1.15,2009-02-18 05:53:00,
2009-02-17 21:56:00,42.3,41.8,30.14,WSW,248,3.0,5.0,98,0.00,,,0.47,Wunderground v.1.15,2009-02-18 05:56:00,
2009-02-17 21:58:00,42.3,41.8,30.14,WSW,246,3.0,5.0,98,0.00,,,0.47,Wunderground v.1.15,2009-02-18 05:58:00,
2009-02-17 22:01:00,42.2,41.9,30.13,WSW,241,5.0,6.0,99,0.00,,,0.47,Wunderground v.1.15,2009-02-18 06:01:00,
2009-02-17 22:03:00,42.3,42.0,30.13,WSW,244,3.0,6.0,99,0.00,,,0.47,Wunderground v.1.15,2009-02-18 06:03:00,
2009-02-17 22:06:00,42.3,42.0,30.14,WSW,243,3.0,6.0,99,0.00,,,0.47,Wunderground v.1.15,2009-02-18 06:06:00,
2009-02-17 22:07:00,42.4,42.1,30.14,WSW,240,4.0,6.0,99,0.00,,,0.47,Wunderground v.1.15,2009-02-18 06:07:00,
2009-02-17 22:08:00,42.4,42.1,30.14,WSW,250,3.0,6.0,99,0.00,,,0.47,Wunderground v.1.15,2009-02-18 06:08:00,
2009-02-17 22:12:00,42.5,42.2,30.14,WSW,240,2.0,6.0,99,0.00,,,0.47,Wunderground v.1.15,2009-02-18 06:12:00,
2009-02-17 22:13:00,42.5,42.2,30.14,WSW,246,3.0,6.0,99,0.00,,,0.47,Wunderground v.1.15,2009-02-18 06:13:00,
2009-02-17 22:14:00,42.5,42.2,30.14,WSW,238,4.0,6.0,99,0.00,,,0.47,Wunderground v.1.15,2009-02-18 06:14:00,
2009-02-17 22:17:00,42.5,42.2,30.14,WSW,237,2.0,6.0,99,0.00,,,0.47,Wunderground v.1.15,2009-02-18 06:17:00,
2009-02-17 22:18:00,42.5,42.2,30.14,WSW,237,4.0,6.0,99,0.00,,,0.47,Wunderground v.1.15,2009-02-18 06:18:00,
2009-02-17 22:19:00,42.5,42.2,30.14,West,271,2.0,6.0,99,0.00,,,0.47,Wunderground v.1.15,2009-02-18 06:19:00,
2009-02-17 22:22:00,42.5,42.2,30.14,WSW,248,1.0,4.0,99,0.00,,,0.47,Wunderground v.1.15,2009-02-18 06:22:00,
2009-02-17 22:23:00,42.5,42.2,30.14,SW,229,6.0,6.0,99,0.00,,,0.47,Wunderground v.1.15,2009-02-18 06:23:00,
2009-02-17 22:24:00,42.5,42.2,30.14,SW,231,1.0,6.0,99,0.00,,,0.47,Wunderground v.1.15,2009-02-18 06:24:00,
2009-02-17 22:25:00,42.5,42.2,30.14,SW,236,2.0,6.0,99,0.00,,,0.47,Wunderground v.1.15,2009-02-18 06:25:00,
2009-02-17 22:27:00,42.4,42.1,30.14,SSW,213,3.0,6.0,99,0.00,,,0.47,Wunderground v.1.15,2009-02-18 06:27:00,
2009-02-17 22:29:00,42.4,42.1,30.14,SW,229,3.0,6.0,99,0.00,,,0.47,Wunderground v.1.15,2009-02-18 06:29:00,
2009-02-17 22:30:00,42.4,42.1,30.14,SW,223,2.0,3.0,99,0.00,,,0.47,Wunderground v.1.15,2009-02-18 06:30:00,
2009-02-17 22:32:00,42.3,42.0,30.14,SW,223,1.0,3.0,99,0.00,,,0.47,Wunderground v.1.15,2009-02-18 06:32:00,
2009-02-17 22:34:00,42.2,41.9,30.14,SW,223,2.0,3.0,99,0.00,,,0.47,Wunderground v.1.15,2009-02-18 06:34:00,
2009-02-17 22:35:00,42.2,41.9,30.14,SW,223,2.0,3.0,99,0.00,,,0.47,Wunderground v.1.15,2009-02-18 06:35:00,
2009-02-17 22:38:00,42.1,41.8,30.15,SW,223,1.0,5.0,99,0.00,,,0.47,Wunderground v.1.15,2009-02-18 06:38:00,
2009-02-17 22:39:00,42.1,41.8,30.15,WSW,237,2.0,5.0,99,0.00,,,0.47,Wunderground v.1.15,2009-02-18 06:39:00,
2009-02-17 22:40:00,42.1,41.8,30.15,SW,219,5.0,5.0,99,0.00,,,0.47,Wunderground v.1.15,2009-02-18 06:40:00,
2009-02-17 22:43:00,42.2,41.9,30.15,SW,227,2.0,6.0,99,0.00,,,0.47,Wunderground v.1.15,2009-02-18 06:43:00,
2009-02-17 22:44:00,42.2,41.9,30.15,SW,227,3.0,6.0,99,0.00,,,0.47,Wunderground v.1.15,2009-02-18 06:44:00,
2009-02-17 22:45:00,42.1,41.8,30.15,SW,228,4.0,6.0,99,0.00,,,0.47,Wunderground v.1.15,2009-02-18 06:45:00,
2009-02-17 22:48:00,42.2,41.9,30.15,SW,228,3.0,6.0,99,0.00,,,0.47,Wunderground v.1.15,2009-02-18 06:48:00,
2009-02-17 22:49:00,42.2,41.9,30.15,SW,227,4.0,6.0,99,0.00,,,0.47,Wunderground v.1.15,2009-02-18 06:49:00,
2009-02-17 22:50:00,42.2,41.9,30.15,SW,228,3.0,3.0,99,0.00,,,0.47,Wunderground v.1.15,2009-02-18 06:50:00,
2009-02-17 22:51:00,42.2,41.9,30.15,SW,227,3.0,4.0,99,0.00,,,0.47,Wunderground v.1.15,2009-02-18 06:51:00,
2009-02-17 22:53:00,42.2,41.9,30.15,SW,227,2.0,4.0,99,0.00,,,0.47,Wunderground v.1.15,2009-02-18 06:53:00,
2009-02-17 22:54:00,42.1,41.8,30.15,SW,228,1.0,4.0,99,0.00,,,0.47,Wunderground v.1.15,2009-02-18 06:54:00,
2009-02-17 22:55:00,42.0,41.7,30.15,SW,228,2.0,4.0,99,0.00,,,0.47,Wunderground v.1.15,2009-02-18 06:55:00,
2009-02-17 22:56:00,42.0,41.7,30.15,SW,227,1.0,4.0,99,0.00,,,0.47,Wunderground v.1.15,2009-02-18 06:56:00,
2009-02-17 22:58:00,41.9,41.6,30.15,SW,227,0.0,4.0,99,0.00,,,0.47,Wunderground v.1.15,2009-02-18 06:58:00,
2009-02-17 23:00:00,41.9,41.6,30.15,SW,227,2.0,2.0,99,0.00,,,0.47,Wunderground v.1.15,2009-02-18 07:00:00,
2009-02-17 23:01:00,41.9,41.6,30.15,SW,228,1.0,2.0,99,0.00,,,0.47,Wunderground v.1.15,2009-02-18 07:01:00,
2009-02-17 23:03:00,41.8,41.5,30.15,SW,228,0.0,2.0,99,0.00,,,0.47,Wunderground v.1.15,2009-02-18 07:03:00,
2009-02-17 23:05:00,41.8,41.5,30.15,SW,228,0.0,2.0,99,0.00,,,0.47,Wunderground v.1.15,2009-02-18 07:05:00,
2009-02-17 23:06:00,41.7,41.4,30.15,SW,227,1.0,2.0,99,0.00,,,0.47,Wunderground v.1.15,2009-02-18 07:06:00,
2009-02-17 23:09:00,41.6,41.3,30.15,SW,228,0.0,2.0,99,0.00,,,0.47,Wunderground v.1.15,2009-02-18 07:09:00,
2009-02-17 23:10:00,41.5,41.2,30.15,SW,228,1.0,1.0,99,0.00,,,0.47,Wunderground v.1.15,2009-02-18 07:10:00,
2009-02-17 23:11:00,41.4,40.9,30.15,SW,228,0.0,2.0,98,0.00,,,0.47,Wunderground v.1.15,2009-02-18 07:11:00,
2009-02-17 23:12:00,41.4,40.9,30.15,SW,228,1.0,2.0,98,0.00,,,0.47,Wunderground v.1.15,2009-02-18 07:12:00,
2009-02-17 23:14:00,41.4,40.9,30.16,SW,227,2.0,2.0,98,0.00,,,0.47,Wunderground v.1.15,2009-02-18 07:14:00,
2009-02-17 23:15:00,41.3,40.8,30.16,SW,228,0.0,2.0,98,0.00,,,0.47,Wunderground v.1.15,2009-02-18 07:15:00,
2009-02-17 23:17:00,41.3,40.8,30.16,SW,228,2.0,2.0,98,0.00,,,0.47,Wunderground v.1.15,2009-02-18 07:17:00,
2009-02-17 23:20:00,41.4,40.9,30.16,SW,228,3.0,3.0,98,0.00,,,0.47,Wunderground v.1.15,2009-02-18 07:20:00,
2009-02-17 23:21:00,41.4,40.9,30.16,SW,227,3.0,3.0,98,0.00,,,0.47,Wunderground v.1.15,2009-02-18 07:21:00,
2009-02-17 23:22:00,41.4,40.9,30.16,SW,228,3.0,3.0,98,0.00,,,0.47,Wunderground v.1.15,2009-02-18 07:22:00,
2009-02-17 23:25:00,41.3,40.8,30.17,SW,228,2.0,3.0,98,0.00,,,0.47,Wunderground v.1.15,2009-02-18 07:25:00,
2009-02-17 23:26:00,41.3,40.8,30.17,SW,227,3.0,3.0,98,0.00,,,0.47,Wunderground v.1.15,2009-02-18 07:26:00,
2009-02-17 23:27:00,41.3,40.8,30.17,SW,228,3.0,4.0,98,0.00,,,0.47,Wunderground v.1.15,2009-02-18 07:27:00,
2009-02-17 23:29:00,41.3,40.8,30.17,SW,228,3.0,4.0,98,0.00,,,0.47,Wunderground v.1.15,2009-02-18 07:29:00,
2009-02-17 23:31:00,41.4,40.9,30.17,SW,228,3.0,4.0,98,0.00,,,0.47,Wunderground v.1.15,2009-02-18 07:31:00,
2009-02-17 23:32:00,41.4,40.9,30.17,SW,228,2.0,4.0,98,0.00,,,0.47,Wunderground v.1.15,2009-02-18 07:32:00,
2009-02-17 23:34:00,41.4,40.9,30.17,SW,227,1.0,4.0,98,0.00,,,0.47,Wunderground v.1.15,2009-02-18 07:34:00,
2009-02-17 23:36:00,41.4,40.9,30.17,SW,228,2.0,4.0,98,0.00,,,0.47,Wunderground v.1.15,2009-02-18 07:36:00,
2009-02-17 23:37:00,41.4,40.9,30.17,SW,228,2.0,4.0,98,0.00,,,0.47,Wunderground v.1.15,2009-02-18 07:37:00,
2009-02-17 23:39:00,41.5,41.2,30.17,SW,228,2.0,4.0,99,0.00,,,0.47,Wunderground v.1.15,2009-02-18 07:39:00,
2009-02-17 23:41:00,41.4,40.9,30.17,SW,228,3.0,4.0,98,0.00,,,0.47,Wunderground v.1.15,2009-02-18 07:41:00,
2009-02-17 23:42:00,41.4,40.9,30.17,SW,227,3.0,4.0,98,0.00,,,0.47,Wunderground v.1.15,2009-02-18 07:42:00,
2009-02-17 23:43:00,41.4,40.9,30.17,SW,228,3.0,4.0,98,0.00,,,0.47,Wunderground v.1.15,2009-02-18 07:43:00,
2009-02-17 23:45:00,41.4,40.9,30.17,SW,227,3.0,4.0,98,0.00,,,0.47,Wunderground v.1.15,2009-02-18 07:45:00,
2009-02-17 23:47:00,41.4,40.9,30.17,SW,228,3.0,4.0,98,0.00,,,0.47,Wunderground v.1.15,2009-02-18 07:47:00,
2009-02-17 23:48:00,41.3,40.8,30.17,SW,228,3.0,4.0,98,0.00,,,0.47,Wunderground v.1.15,2009-02-18 07:48:00,
2009-02-17 23:50:00,41.3,40.8,30.17,SW,227,4.0,4.0,98,0.00,,,0.47,Wunderground v.1.15,2009-02-18 07:50:00,
2009-02-17 23:52:00,41.3,40.8,30.17,SW,223,2.0,4.0,98,0.00,,,0.47,Wunderground v.1.15,2009-02-18 07:52:00,
2009-02-17 23:54:00,41.3,40.8,30.17,SW,221,3.0,4.0,98,0.00,,,0.47,Wunderground v.1.15,2009-02-18 07:54:00,
2009-02-17 23:55:00,41.3,40.8,30.17,SW,215,4.0,5.0,98,0.00,,,0.47,Wunderground v.1.15,2009-02-18 07:55:00,
2009-02-17 23:57:00,41.3,40.8,30.17,SSW,202,3.0,5.0,98,0.00,,,0.47,Wunderground v.1.15,2009-02-18 07:57:00,
2009-02-17 23:59:00,41.3,40.8,30.17,SSW,202,2.0,5.0,98,0.00,,,0.47,Wunderground v.1.15,2009-02-18 07:59:00,